GFSSW_500_rhum_000.txt.gz
RH
67 77 60 3 6 2 1 1 2 1 1 1 1 1 2 2 1 3 5 7 11 13 12 17 17 14 14 14 9 9 8 9 18 18 17 16 15 17 18 20 16 13 18 21 26
65 14 6 4 1 1 1 2 2 2 2 1 3 2 2 2 2 2 2 4 7 10 12 12 11 10 9 10 15 16 15 18 21 9 3 1 1 2 1 1 1 1 1 1 2
11 7 1 1 1 1 1 2 2 2 2 3 3 4 4 3 3 2 2 2 1 3 5 6 9 6 3 4 18 4 2 2 2 2 2 2 2 2 4 5 7 6 7 8 8
3 1 2 1 1 1 2 2 2 3 3 3 4 4 5 6 6 4 4 4 6 7 5 3 3 3 4 3 3 3 2 3 4 4 4 5 5 5 7 8 8 8 10 10 12
2 2 2 2 3 2 2 3 3 3 4 4 4 5 6 8 9 9 9 9 12 12 6 6 6 7 8 7 7 4 4 4 5 6 8 9 11 11 11 10 10 9 9 9 9
3 4 4 4 4 3 3 3 3 4 5 5 5 6 7 7 9 10 11 14 14 14 14 12 11 9 7 6 5 4 4 5 5 7 11 10 15 18 21 18 20 17 18 13 12
5 5 4 4 4 4 5 5 4 4 4 5 6 7 8 10 12 12 14 14 14 15 16 16 17 18 16 12 10 10 10 8 9 11 13 13 14 15 18 22 23 22 21 20 24
4 4 4 4 4 4 4 5 5 5 5 5 6 6 7 9 12 12 12 12 13 14 14 17 19 20 20 19 21 14 12 11 11 12 15 16 15 15 12 13 11 12 13 14 20
3 3 3 3 3 3 3 4 4 4 4 5 6 7 7 8 8 8 8 10 11 11 12 14 15 17 17 16 18 15 8 8 11 16 12 14 16 14 8 11 10 8 10 11 11
3 3 3 3 4 4 3 3 3 4 4 5 5 5 6 7 7 7 8 8 10 12 13 15 14 14 17 16 17 16 16 16 13 14 13 10 12 11 13 16 14 12 9 8 10
6 4 3 4 5 5 4 4 4 4 3 3 3 3 3 4 5 7 9 8 9 11 14 16 14 15 15 18 16 16 17 16 15 12 17 18 17 14 20 18 17 18 16 15 15
6 6 5 7 8 8 7 6 6 6 5 5 4 3 3 4 5 6 11 10 9 11 13 15 16 17 16 20 19 18 20 20 20 18 15 19 19 19 20 22 26 26 27 29 33
7 6 6 7 8 8 8 8 6 8 7 6 5 4 4 4 6 8 14 16 12 11 12 15 15 15 16 18 19 20 22 24 21 24 18 18 19 23 24 24 30 34 36 38 41
6 7 8 8 8 8 7 6 6 6 6 7 6 4 4 5 8 10 16 21 21 13 12 13 13 13 12 12 16 19 19 20 23 24 25 24 29 32 29 32 37 39 44 44 44
5 4 3 3 3 3 5 6 6 6 6 5 4 4 5 6 12 16 21 24 26 22 18 16 16 16 15 10 12 16 19 19 22 24 31 35 33 42 34 39 45 41 43 44 39
1 1 1 1 2 2 3 3 4 4 4 4 6 6 7 8 17 24 27 27 30 33 25 21 20 18 21 13 9 12 18 21 24 28 35 33 36 44 42 53 63 68 52 44 50
4 4 4 5 6 7 6 6 6 7 10 13 14 14 14 21 24 22 20 21 22 23 29 29 23 20 20 16 12 14 18 23 24 26 30 37 46 38 47 55 66 70 73 72 87
14 16 18 19 13 10 10 11 10 12 19 16 19 20 21 20 18 16 15 20 25 27 26 27 31 22 18 13 18 21 21 22 26 24 32 38 45 40 45 58 53 61 73 78 74
10 17 26 24 20 16 15 14 16 15 16 17 18 18 16 16 13 15 32 36 29 29 32 34 32 26 18 20 24 24 26 28 29 31 33 41 49 44 82 69 66 71 72 68 74
8 15 33 30 23 23 24 27 27 26 24 20 17 17 26 42 36 37 34 35 40 41 41 37 32 33 33 36 37 37 31 30 33 38 37 33 44 52 79 84 96 83 72 68 76
8 13 24 31 27 29 33 37 42 41 40 45 48 48 46 42 37 36 46 39 44 39 41 40 45 40 36 36 35 36 36 33 37 52 48 51 42 66 71 80 89 89 86 94 97
8 12 17 23 29 27 32 40 41 45 44 41 48 50 46 39 38 44 47 51 51 50 45 43 44 42 43 44 46 49 49 47 47 46 50 61 42 76 66 77 73 81 82 77 80
8 10 13 17 18 22 28 34 36 40 49 54 52 47 48 51 51 50 55 62 65 58 53 49 47 50 51 43 42 48 54 51 53 55 60 60 62 78 86 77 70 71 77 82 79
9 10 12 15 17 18 18 20 22 29 40 49 56 62 64 68 70 66 66 60 55 52 49 44 43 42 41 43 45 56 63 63 56 54 50 54 50 69 58 63 62 54 53 64 62
11 11 12 12 15 17 17 18 18 22 22 25 26 29 34 37 39 42 44 45 44 41 40 38 40 46 55 57 57 61 63 58 57 59 54 56 56 56 55 52 52 54 55 51 55
13 12 12 12 14 16 16 17 20 24 26 30 34 34 32 35 37 38 39 40 43 46 51 55 59 61 64 63 61 62 62 59 56 54 49 47 42 42 45 47 46 61 52 64 80
16 13 12 12 15 17 19 20 23 27 38 53 60 67 70 44 55 61 64 59 45 43 54 61 56 56 56 58 55 62 54 47 46 49 40 34 34 44 48 49 59 58 56 54 93

GFSSW_500_rhum_003.txt.gz
RH
56 68 85 73 73 33 7 2 2 2 1 1 1 1 1 2 2 3 4 6 8 8 7 10 9 9 9 7 9 13 15 9 10 12 14 14 14 11 8 7 6 6 6 1 2
62 63 69 72 9 4 2 2 2 1 1 1 2 2 2 2 2 3 5 6 7 9 10 9 8 8 9 11 13 9 3 1 2 1 0 1 0 0 2 2 2 4 4 6 8
73 74 63 1 2 2 2 2 1 2 3 3 3 2 2 2 2 2 2 5 8 11 10 10 10 8 7 3 2 1 1 1 2 3 4 4 4 5 7 8 8 9 10 10 11
65 29 1 1 1 2 2 2 3 4 4 4 4 4 4 4 4 3 3 4 3 1 2 2 2 1 1 2 2 3 4 4 5 6 7 7 8 8 9 7 6 7 7 8 9
4 1 0 1 2 2 2 2 3 4 4 5 6 7 8 8 8 7 8 8 9 13 9 6 4 4 3 3 3 4 5 6 8 9 10 10 11 11 14 14 13 12 12 10 12
0 0 0 2 3 2 2 3 3 4 4 5 7 8 8 9 10 11 12 14 16 22 18 13 9 7 6 4 3 4 6 7 7 9 10 11 12 10 10 11 11 11 10 10 12
0 1 2 3 4 3 3 3 4 5 5 6 7 7 8 8 10 11 12 14 15 16 17 18 16 14 13 10 9 6 6 8 10 11 12 13 14 10 12 13 14 13 12 9 8
4 3 3 3 4 4 4 4 4 4 5 6 7 7 7 8 9 10 12 12 12 12 13 15 16 16 15 13 10 12 11 12 12 12 14 13 9 7 11 13 13 11 11 13 12
6 6 6 5 5 5 5 5 5 5 6 6 7 7 7 7 8 8 8 9 11 11 12 12 12 14 14 16 16 15 14 13 15 18 16 16 11 11 15 13 13 14 15 12 14
5 4 4 4 3 4 4 4 4 5 5 6 6 6 7 8 7 7 7 7 9 12 14 15 15 16 16 16 14 16 16 14 12 16 14 11 11 12 14 15 16 17 19 21 24
3 3 2 3 3 4 4 4 4 4 4 4 3 3 3 4 5 7 9 9 7 10 14 15 16 15 18 17 17 21 19 19 16 12 16 16 16 17 17 17 19 20 22 27 29
3 3 3 4 4 5 5 6 5 5 4 4 4 3 3 3 4 6 10 14 10 9 13 16 17 15 17 17 17 19 21 21 18 15 14 16 18 21 21 20 21 21 24 31 37
4 4 4 6 7 7 7 7 7 8 7 7 6 5 4 4 5 8 12 18 19 12 11 13 13 14 13 13 14 14 17 18 22 24 18 22 25 27 26 27 28 29 32 36 40
6 5 5 7 8 8 9 9 8 7 8 7 6 5 4 4 6 10 14 22 23 22 15 12 13 14 12 10 12 14 16 17 20 22 23 29 32 32 30 30 32 35 38 42 39
6 6 6 7 7 7 7 7 7 6 6 6 5 5 4 5 6 10 19 24 29 32 28 22 17 17 17 14 11 14 14 19 22 24 27 28 31 31 29 30 30 38 40 40 37
6 6 6 7 5 2 3 4 5 5 5 5 5 5 5 6 7 11 20 23 23 23 22 28 28 22 20 16 10 12 16 24 24 23 25 27 27 24 28 32 36 38 45 44 48
3 5 4 2 1 1 2 3 4 4 4 5 6 7 10 12 12 19 20 18 16 15 19 21 24 28 26 21 16 12 13 20 22 24 24 22 22 26 34 46 57 62 56 57 68
2 1 0 0 1 4 7 7 7 8 9 10 12 13 13 16 21 19 16 13 13 22 27 26 25 29 28 25 18 16 22 24 27 23 22 25 31 34 38 46 53 52 54 58 53
2 3 6 12 16 14 13 12 12 13 13 13 15 15 16 16 13 13 14 30 33 32 35 36 35 34 31 24 19 19 22 25 24 22 26 38 48 42 44 58 45 52 48 46 53
11 15 20 25 24 19 19 23 25 26 25 22 20 18 15 23 41 37 37 38 42 41 40 38 35 33 30 26 25 25 28 28 27 31 31 32 47 49 48 39 49 42 43 52 61
7 14 21 30 26 22 24 29 37 39 34 32 38 42 47 49 41 35 38 44 51 48 46 47 45 37 38 38 38 38 36 32 32 36 36 34 32 55 45 45 48 57 65 69 72
8 11 17 31 31 29 28 35 38 39 39 35 31 29 38 41 38 34 41 52 58 50 49 48 48 46 44 45 45 40 38 37 35 36 39 43 38 60 52 50 57 60 60 64 63
7 10 13 22 25 23 23 28 33 33 36 39 48 52 54 53 52 52 51 53 58 57 53 47 45 44 42 40 44 44 47 52 45 47 50 49 56 55 58 57 52 50 53 50 44
7 9 12 18 20 17 16 18 17 17 20 30 39 42 45 46 46 48 48 47 46 46 45 43 43 42 44 48 59 65 65 63 53 47 47 50 41 52 44 38 35 35 35 35 35
10 11 15 17 16 16 16 16 18 18 20 24 26 26 25 27 28 32 36 41 44 42 40 40 45 52 56 64 62 56 55 55 53 56 46 50 47 44 39 36 40 43 43 44 51
13 12 12 15 15 15 16 18 18 19 21 26 34 38 43 53 57 52 46 54 65 70 70 70 58 52 49 49 48 51 64 65 62 64 57 52 50 49 48 49 53 59 62 61 61
15 15 13 14 14 13 14 17 18 20 23 28 30 33 35 38 54 67 65 65 67 67 72 75 76 70 63 57 60 68 69 63 59 69 63 53 54 55 60 70 76 79 78 76 80

GFSSW_500_rhum_006.txt.gz
RH
50 66 60 82 79 69 50 46 35 9 3 3 2 2 2 2 3 4 4 5 6 6 6 8 9 9 8 8 13 16 16 20 12 11 9 11 11 6 2 2 1 1 4 7 8
67 67 71 89 91 71 66 20 5 3 3 3 2 2 3 3 4 5 5 8 8 9 9 9 9 8 9 10 12 11 9 10 6 2 1 1 1 4 5 6 8 8 10 10 11
70 69 76 80 81 63 12 3 3 4 2 2 2 2 2 2 3 4 7 8 12 10 10 9 7 5 3 2 1 1 1 1 3 3 4 5 6 7 8 8 8 9 9 10 10
74 88 75 76 29 6 3 4 4 3 3 2 2 3 2 2 2 2 1 2 5 8 4 5 4 2 2 3 3 2 3 4 5 6 6 7 7 8 9 11 12 10 9 10 10
76 68 63 7 4 4 3 3 3 4 4 4 4 5 4 5 5 5 5 3 3 2 2 2 2 2 3 3 4 4 5 6 8 10 10 10 10 10 11 13 12 13 11 12 13
54 18 2 3 4 3 4 4 5 6 6 7 7 8 9 10 11 10 11 11 13 12 11 9 6 4 5 5 5 6 7 8 9 10 10 10 12 14 12 9 7 8 9 10 8
2 1 2 3 3 3 3 4 4 5 6 7 7 8 9 10 11 12 12 13 15 16 17 21 16 12 9 9 7 6 7 10 11 11 12 14 13 16 14 12 10 10 10 10 11
1 2 3 4 4 4 4 5 5 5 7 8 8 8 7 8 8 10 11 12 12 12 14 16 18 15 13 13 12 12 12 13 13 14 13 16 13 10 12 12 12 14 13 15 13
2 3 4 4 4 4 6 6 6 6 6 6 6 7 7 8 7 8 8 9 12 14 14 13 14 15 15 17 15 17 16 16 15 16 16 16 15 14 12 13 14 15 17 20 21
3 4 4 6 7 6 6 6 6 6 6 7 7 7 8 8 7 8 7 7 9 13 14 15 14 17 16 17 18 16 14 15 14 15 15 16 16 16 15 14 15 15 18 21 23
4 6 8 7 6 5 5 5 5 6 5 6 4 4 4 5 6 7 9 8 8 11 13 14 15 18 17 16 17 18 18 17 15 15 15 16 14 15 17 17 19 21 23 24 26
7 6 5 4 4 4 4 4 4 4 4 4 3 3 3 4 5 6 9 14 12 9 12 11 12 16 18 18 16 18 19 19 18 17 18 20 16 14 16 20 23 28 31 30 32
5 4 4 4 4 5 5 5 6 6 7 7 6 5 5 4 5 8 10 18 18 16 11 11 12 13 15 15 14 12 14 16 16 16 18 23 23 25 26 28 29 29 29 30 30
4 4 4 4 5 6 6 7 8 8 8 8 8 7 5 4 5 8 12 18 23 23 21 17 13 12 14 15 14 12 10 12 14 18 20 22 22 26 24 24 26 27 29 28 26
4 4 5 7 8 8 9 9 9 8 8 7 7 6 5 4 5 7 12 19 24 28 28 28 26 22 17 14 15 16 13 11 11 18 20 22 23 20 20 20 20 23 26 27 29
5 5 4 6 7 8 8 8 8 8 7 6 6 6 6 6 6 8 10 20 23 23 21 21 22 22 25 23 17 15 15 14 14 23 23 22 23 17 18 21 23 27 32 37 44
6 6 6 6 7 7 6 4 4 4 5 5 6 6 6 9 12 14 16 20 18 15 14 14 18 21 21 22 24 23 18 13 15 18 22 20 19 20 22 29 34 38 44 43 48
6 6 6 6 6 5 2 1 2 3 4 4 5 8 14 14 14 17 18 16 13 13 20 23 24 22 26 28 30 26 21 19 22 21 22 22 26 29 28 34 36 32 36 42 48
5 3 3 4 3 0 1 4 8 9 10 10 11 14 16 16 16 14 13 16 28 31 34 33 32 33 33 31 28 27 21 23 23 22 22 23 26 30 31 31 32 36 43 47 47
2 2 2 1 2 7 13 14 15 18 18 17 16 18 19 20 33 43 37 35 36 37 40 40 37 38 34 31 30 32 28 24 22 22 19 26 36 40 38 34 41 47 44 42 44
1 2 3 10 22 24 20 20 25 29 34 30 28 31 37 42 44 39 34 30 27 37 45 45 44 44 45 37 33 32 32 31 31 32 31 31 35 51 47 48 49 47 45 42 37
6 9 13 23 30 27 22 26 28 33 35 36 34 30 28 31 36 35 32 29 30 38 47 50 50 48 46 42 40 41 39 39 38 38 41 47 40 56 53 51 47 42 39 37 37
5 7 14 23 36 31 28 25 26 30 28 32 38 40 40 41 41 43 46 49 50 48 42 41 40 40 41 39 39 40 46 57 53 46 49 50 56 52 54 45 45 44 43 42 46
7 9 12 17 27 24 19 17 17 16 17 20 22 24 23 21 24 26 27 29 31 35 38 43 48 47 42 37 38 45 56 52 49 46 51 56 50 58 55 52 57 57 55 57 58
6 8 12 16 17 15 14 13 14 16 17 17 18 19 30 34 38 43 52 56 54 54 54 55 58 65 65 68 65 57 56 56 59 55 52 62 57 66 61 58 53 54 55 55 49
10 12 10 13 14 14 15 16 17 16 17 19 21 26 27 32 35 38 35 46 46 48 58 59 60 59 57 62 61 60 66 64 67 71 68 65 66 66 55 48 50 59 54 52 59
13 12 11 11 13 14 16 17 18 18 18 21 23 23 27 27 27 25 26 26 32 35 42 61 65 64 64 61 58 64 61 72 70 74 74 66 59 52 52 55 59 60 57 58 56

GFSSW_500_rhum_009.txt.gz
RH
60 46 69 55 56 59 52 47 45 39 47 30 9 3 2 2 2 3 3 6 7 7 8 9 9 10 11 12 17 23 23 11 7 12 11 10 7 4 3 5 4 6 7 8 9
55 60 62 62 65 62 48 48 64 62 22 6 5 4 4 5 8 9 9 9 10 11 12 12 10 11 14 13 13 10 8 9 10 6 3 1 2 3 6 8 9 10 10 11 11
77 64 75 81 90 89 81 86 26 8 5 7 5 6 6 7 10 11 11 11 13 13 11 11 10 13 9 7 5 4 6 3 1 2 5 6 7 7 8 8 9 9 8 9 10
73 69 84 91 92 81 39 10 6 7 5 4 3 3 3 2 4 6 8 10 11 10 10 10 8 4 1 1 1 1 3 4 5 6 7 7 7 7 8 9 13 14 15 15 14
78 76 93 86 43 7 6 7 6 4 3 3 3 3 4 4 2 2 3 4 4 3 3 3 3 2 2 2 2 3 5 6 7 7 8 10 12 12 13 13 14 12 12 12 9
91 78 64 5 4 6 6 5 5 7 7 5 6 7 11 13 12 10 9 7 7 6 4 3 4 4 4 4 5 6 8 9 10 10 10 10 14 16 13 12 13 10 11 10 10
54 12 4 4 5 5 6 7 8 8 9 10 10 10 11 12 12 13 14 15 14 15 12 12 10 8 5 5 6 7 8 9 9 10 12 10 13 18 16 13 12 11 11 11 13
4 3 4 4 5 6 6 7 8 8 8 8 9 9 9 10 10 10 12 12 13 14 15 15 13 11 10 8 7 8 9 11 11 11 13 13 15 14 15 12 12 12 13 16 19
2 3 4 4 4 5 6 8 8 8 8 8 8 7 8 8 8 8 10 12 12 12 12 13 14 14 14 14 14 16 17 16 16 16 16 16 13 11 12 13 15 16 17 17 20
3 3 4 5 6 7 8 10 9 8 8 8 8 7 8 7 8 8 7 8 12 12 12 12 13 14 15 19 20 20 19 19 16 16 17 20 18 17 16 15 16 18 19 23 27
4 5 6 6 7 9 9 8 8 7 7 8 6 6 5 5 6 8 10 8 9 10 11 12 13 14 16 19 20 20 19 17 18 20 19 18 14 14 16 16 20 23 27 30 28
4 6 7 10 12 10 7 6 6 6 5 4 4 4 4 4 6 7 9 12 9 9 10 11 14 14 16 18 17 17 17 18 18 19 21 20 18 16 20 24 26 28 30 30 27
7 10 11 10 8 6 5 6 5 6 6 6 6 5 5 4 5 7 10 13 14 14 11 10 10 12 13 14 14 13 13 13 16 16 16 18 18 20 22 22 24 26 27 29 34
11 9 7 6 6 6 6 6 6 7 8 8 7 7 6 5 4 6 9 14 18 19 20 19 16 13 12 12 12 12 13 11 10 10 13 16 18 20 18 21 23 25 30 33 33
8 5 5 5 5 6 7 7 8 8 8 7 7 7 7 6 5 5 7 12 20 26 28 26 24 23 21 20 16 13 12 11 10 9 9 16 19 17 17 23 26 22 24 30 37
6 4 4 5 6 7 8 9 9 9 8 6 7 7 7 7 6 6 7 9 13 22 22 20 18 18 19 20 19 20 17 17 15 12 11 18 18 17 22 25 23 23 29 38 43
5 4 5 6 7 8 8 8 9 9 7 7 6 6 7 7 8 10 12 13 17 18 16 13 12 12 14 18 20 20 21 21 18 14 15 17 21 23 23 23 22 32 37 40 43
4 4 5 5 6 7 7 8 7 5 4 3 4 4 5 8 13 13 14 16 14 12 11 20 26 26 28 25 24 26 27 25 20 17 19 22 23 22 23 31 33 33 38 41 45
4 6 6 7 7 7 6 6 2 2 4 6 7 8 11 13 13 13 11 14 21 26 27 29 34 36 36 35 32 34 30 30 29 27 25 23 24 29 37 37 39 43 47 48 48
5 6 6 6 5 4 4 1 6 12 15 17 15 15 17 20 21 34 36 33 31 28 29 34 31 32 34 34 33 34 29 28 27 27 27 30 32 45 55 53 46 47 49 46 44
4 5 4 3 2 2 3 15 17 23 30 32 28 26 27 33 36 36 33 30 28 28 32 36 41 44 41 40 40 40 39 39 37 35 36 34 35 51 49 48 44 42 40 41 42
4 3 3 2 2 7 23 23 24 28 32 31 31 30 28 26 28 31 32 32 36 39 43 44 42 42 40 40 39 39 40 42 44 38 36 35 32 45 51 52 48 47 49 52 55
2 2 2 6 13 24 30 23 25 26 27 22 24 27 29 26 24 21 25 28 28 30 32 35 37 42 46 46 48 50 50 53 52 48 47 42 56 54 60 57 53 54 54 56 52
2 4 7 9 17 27 32 28 20 18 20 13 15 16 16 22 34 36 37 40 45 47 49 49 53 56 56 58 53 51 58 66 66 62 59 57 54 76 64 57 57 57 52 51 52
4 5 7 10 18 24 25 16 12 13 13 14 14 15 19 28 29 30 32 33 34 34 38 45 45 46 50 56 56 52 62 65 63 67 59 61 65 68 60 64 66 60 59 56 53
7 8 7 10 15 18 16 14 14 14 14 14 15 16 20 23 24 20 19 22 29 38 46 49 46 45 45 54 57 53 64 69 68 67 63 65 66 69 72 69 62 57 52 46 41
8 7 9 10 14 14 14 13 14 14 15 15 16 17 18 20 21 19 18 20 28 38 50 56 58 57 53 54 50 48 59 70 74 83 82 76 72 68 70 64 59 53 48 46 44

GFSSW_500_rhum_012.txt.gz
RH
65 63 60 68 65 53 34 31 31 31 46 44 36 44 36 21 2 2 3 4 4 4 4 6 8 9 9 11 15 27 17 11 11 12 10 11 10 5 2 2 3 5 5 4 4
44 50 50 56 61 64 66 53 46 41 39 47 44 12 13 4 4 5 5 6 7 8 9 10 11 13 18 19 12 12 9 9 9 7 7 3 2 5 6 7 9 9 9 9 8
35 59 64 70 53 54 50 48 45 53 41 16 8 9 11 12 11 10 9 10 13 13 11 10 13 14 14 12 10 9 9 4 1 2 2 2 5 6 8 9 9 10 8 8 7
56 57 61 69 80 93 78 80 52 15 8 9 12 13 12 12 13 12 13 13 13 13 11 11 13 13 9 6 6 6 2 1 1 3 6 7 7 8 8 8 9 9 9 6 8
70 78 82 96 96 87 54 14 8 9 10 11 10 8 9 10 11 10 10 10 10 8 6 8 5 3 2 1 2 3 4 5 6 6 7 7 8 10 12 13 13 10 11 9 11
70 74 96 70 19 8 8 8 7 6 5 5 5 5 5 5 3 4 3 3 2 3 3 4 3 4 4 3 4 6 7 8 8 9 10 12 12 10 11 11 10 8 9 9 9
64 44 3 4 7 8 6 4 4 5 8 13 14 16 16 18 14 12 11 10 7 6 7 5 5 8 6 5 6 8 8 9 10 11 12 11 12 11 10 9 9 10 12 13 14
11 4 5 7 7 6 7 9 11 14 15 13 12 13 13 13 13 13 14 14 14 16 14 12 13 11 9 8 8 8 8 9 10 11 11 13 10 13 10 10 11 15 17 19 20
3 4 6 6 6 9 11 13 14 13 11 10 10 10 10 10 11 12 12 13 13 14 15 15 14 13 11 12 9 10 14 11 10 13 11 12 11 13 14 13 17 17 20 24 26
4 4 5 7 9 10 11 12 12 10 9 8 8 8 8 7 8 9 11 12 12 12 12 13 14 16 16 14 16 17 20 18 16 16 16 13 11 13 15 17 16 19 25 27 29
4 5 7 9 10 10 12 11 10 8 8 9 8 7 6 7 9 9 8 9 11 12 14 15 15 15 16 16 17 18 19 19 19 21 19 16 14 17 19 18 22 27 30 32 34
4 5 8 9 10 13 12 10 10 9 6 4 4 4 4 5 6 8 11 12 8 10 12 14 15 14 13 14 15 16 16 17 17 18 20 19 21 21 23 25 27 31 34 37 39
5 6 8 10 12 11 10 10 7 6 6 5 5 6 6 5 6 8 9 14 16 13 10 11 12 12 12 12 12 12 12 11 12 12 16 17 19 20 22 24 28 29 32 32 32
6 7 9 10 9 8 8 7 7 8 8 8 8 8 7 6 5 6 8 14 20 21 19 16 15 13 12 11 10 9 10 12 12 13 12 14 23 19 22 23 26 29 28 27 27
8 9 8 8 6 7 6 7 8 8 8 8 8 9 8 7 7 6 6 8 12 19 23 24 24 25 23 21 20 18 18 15 14 14 13 13 22 15 25 27 27 23 22 22 26
9 7 7 7 6 7 8 8 8 8 7 7 8 7 7 6 6 6 6 6 9 11 19 21 20 18 16 15 18 19 18 18 19 19 18 16 23 14 25 27 26 23 22 23 30
7 7 6 6 6 7 8 8 9 9 8 8 7 6 5 5 5 6 9 10 12 13 16 15 13 11 12 11 12 18 20 20 22 24 23 22 21 20 24 26 26 24 26 33 36
6 6 6 6 7 8 9 8 8 8 8 6 5 4 4 5 7 10 11 11 13 14 12 14 23 24 28 28 28 27 28 30 28 27 28 27 25 22 26 28 31 32 35 42 49
6 6 6 6 7 7 7 8 8 7 4 2 4 7 8 10 11 12 11 11 19 26 25 24 29 32 31 31 33 37 33 35 34 30 29 29 29 33 42 42 44 48 51 53 53
6 6 6 6 6 7 7 7 5 2 9 13 15 14 14 16 19 20 30 32 27 22 19 23 25 29 32 34 35 37 36 35 36 35 34 35 37 49 47 45 43 47 52 53 52
5 5 5 6 6 7 5 3 2 14 22 29 28 24 22 22 25 30 30 27 26 26 30 36 38 37 36 37 36 36 36 36 37 40 39 32 33 40 39 47 47 50 56 66 66
4 4 4 5 6 5 2 2 17 21 28 27 23 23 23 23 26 29 30 26 25 25 26 32 37 40 41 44 45 49 48 49 49 47 51 56 49 54 57 52 52 60 64 63 59
4 4 5 4 4 3 2 20 24 24 25 22 19 20 23 24 21 24 30 31 34 36 37 38 39 40 40 40 43 48 52 54 54 54 57 53 60 58 59 60 64 67 63 64 66
3 4 4 4 3 4 16 28 24 25 19 14 11 14 15 16 26 27 32 33 31 35 34 39 43 45 46 48 48 50 58 62 58 56 59 65 57 74 65 66 70 65 73 72 64
3 3 3 3 4 10 22 30 27 24 14 11 12 12 13 19 22 23 19 17 19 22 24 38 45 41 46 50 46 49 62 60 57 59 59 75 77 76 74 75 76 75 71 67 63
2 2 2 5 7 8 22 29 20 10 11 12 12 13 14 16 17 17 17 17 17 19 21 25 32 37 41 45 47 43 54 59 59 67 74 79 85 86 79 74 71 70 60 55 52
3 4 4 6 8 10 18 20 12 11 12 12 13 14 13 13 13 14 16 16 16 18 21 26 35 40 39 42 44 46 45 50 61 72 76 82 79 72 70 65 62 59 58 55 50

GFSSW_500_rhum_015.txt.gz
RH
51 56 39 33 46 44 30 28 30 35 33 34 43 48 40 38 31 37 5 3 3 4 4 3 4 5 6 6 12 13 44 56 40 46 13 11 9 9 8 9 10 5 3 3 4
42 53 60 62 66 60 42 28 24 35 34 42 43 42 44 44 12 5 6 6 7 7 6 7 8 8 11 14 24 20 52 55 20 16 10 10 6 4 3 4 5 5 4 4 5
45 42 40 55 52 64 60 57 42 43 39 44 42 20 37 17 9 10 12 11 11 10 10 9 10 13 16 16 20 27 62 9 8 8 7 3 5 6 7 8 8 8 7 7 7
35 34 55 56 72 59 56 56 50 45 43 38 13 17 21 15 22 17 16 16 13 11 12 19 20 32 41 18 8 12 9 3 2 2 1 2 5 8 8 8 8 8 8 8 8
41 37 66 61 61 73 63 59 71 56 20 15 12 18 14 22 18 18 18 17 14 14 12 14 15 12 8 6 6 4 1 1 2 4 7 7 7 8 8 9 11 12 10 9 8
34 69 72 81 90 93 90 63 17 11 16 16 19 16 20 19 15 13 10 10 8 8 9 7 4 2 1 2 6 4 5 6 6 6 7 7 8 10 12 12 10 9 9 10 12
80 77 84 94 68 38 12 10 11 12 12 11 10 10 12 10 7 5 4 4 4 4 3 3 3 3 3 4 6 8 9 9 9 9 10 10 12 15 14 12 10 11 14 14 17
85 56 13 6 6 8 9 7 6 7 8 10 12 12 12 11 11 11 8 6 4 3 3 4 5 6 7 8 7 8 10 24 11 12 12 14 86 18 12 9 12 13 17 18 20
22 7 10 7 7 5 5 8 14 16 16 17 18 20 22 19 19 18 17 16 14 11 9 7 9 13 10 13 14 15 82 38 14 13 14 16 83 18 14 13 17 17 19 19 22
7 7 6 4 4 6 12 16 18 17 16 16 14 16 15 14 14 14 14 14 13 14 14 13 14 17 19 58 80 72 47 24 37 16 16 16 17 15 15 15 16 18 21 25 27
5 5 4 8 11 15 17 17 16 13 11 9 11 8 8 8 10 11 13 14 15 15 16 17 39 81 22 21 27 23 22 25 23 22 21 20 20 16 16 14 17 19 25 27 29
4 5 8 11 15 17 15 9 11 13 13 9 6 6 7 8 10 10 9 10 12 14 17 17 20 19 18 19 20 19 19 18 18 19 20 19 19 17 20 23 24 25 27 28 27
5 8 10 13 15 14 12 13 12 10 6 5 5 5 6 6 6 7 9 14 10 10 12 23 15 16 16 16 15 14 13 12 12 12 13 15 18 15 18 20 22 24 24 26 26
7 9 10 14 13 11 12 9 6 5 6 6 7 7 6 5 5 7 9 12 19 20 18 14 12 12 12 12 12 12 13 13 12 13 52 12 88 59 23 21 26 27 27 27 27
7 8 11 12 9 8 6 6 8 8 9 8 8 9 8 7 7 6 6 7 12 18 25 26 26 26 26 24 23 21 20 20 20 21 20 18 16 94 57 29 25 28 31 32 32
8 9 10 10 9 7 7 8 9 10 10 9 8 8 8 6 6 6 6 5 7 9 12 15 19 19 17 15 14 13 14 17 19 20 25 28 24 97 92 35 32 28 30 30 29
8 9 10 7 7 7 8 9 9 8 7 8 8 7 6 5 4 5 6 9 10 12 14 16 16 13 13 15 17 15 17 26 30 27 86 35 28 62 28 38 34 31 28 28 30
9 8 7 7 7 8 9 9 9 9 9 8 8 5 3 3 4 6 8 11 11 13 15 14 17 23 27 28 29 30 32 32 34 37 56 32 46 55 32 34 35 37 38 39 48
9 7 7 7 8 9 9 9 8 8 8 6 3 3 6 7 9 11 11 11 12 18 24 23 24 23 26 27 31 35 35 36 35 32 31 37 46 44 44 45 46 49 48 44 50
7 7 8 7 8 8 8 8 8 7 4 4 10 14 13 12 15 18 19 29 28 22 18 22 27 33 37 37 38 38 36 36 36 37 38 85 59 99 85 57 41 43 48 57 62
7 7 7 7 7 7 7 7 7 3 6 19 27 25 20 22 23 26 28 23 22 25 25 25 27 30 34 38 41 42 43 47 47 50 52 47 54 69 66 61 60 58 59 63 65
8 8 6 6 6 6 7 7 3 4 18 27 26 19 19 19 20 23 23 20 25 31 35 35 35 36 36 38 40 41 44 46 52 56 52 54 47 48 59 66 58 60 64 64 66
8 7 6 6 6 5 6 4 2 14 22 26 23 23 23 21 17 16 27 31 33 33 29 30 37 35 28 28 31 39 42 47 50 53 54 54 62 75 74 72 71 74 69 71 64
6 6 5 4 4 4 5 3 4 24 23 20 17 14 13 12 15 26 32 31 25 24 24 25 25 29 32 38 34 37 42 43 42 41 46 54 62 69 88 84 81 80 76 68 71
4 5 4 4 4 4 4 4 20 25 22 20 13 12 11 11 17 19 19 16 16 17 20 20 23 29 35 39 36 35 44 45 47 50 49 54 60 75 76 74 76 70 66 63 57
4 4 4 4 4 4 3 8 22 26 25 16 11 12 11 11 14 15 15 14 16 16 17 18 23 34 38 40 32 34 44 42 42 47 51 60 67 60 65 61 61 56 54 53 48
3 3 4 4 3 3 6 12 22 29 20 9 11 11 11 12 12 12 12 13 15 16 18 18 20 31 38 32 28 32 35 43 45 43 48 54 50 49 58 48 47 47 47 46 45

GFSSW_500_rhum_018.txt.gz
RH
40 47 57 39 25 25 22 26 27 35 44 44 46 47 38 48 40 32 33 28 12 4 3 3 9 5 6 5 26 52 86 92 89 72 65 19 13 16 9 7 8 7 2 3 3
33 45 44 56 30 28 35 36 29 35 40 38 38 45 53 45 36 27 24 9 5 5 5 5 6 6 6 8 46 54 56 56 58 54 53 13 12 8 9 8 9 7 4 5 6
29 35 46 50 54 58 56 46 34 27 35 35 45 49 42 36 27 14 10 7 8 8 8 6 10 18 17 29 48 66 69 56 52 31 19 11 6 4 4 4 5 6 6 7 6
28 40 42 38 46 57 69 62 52 34 42 47 57 34 20 26 46 24 12 12 11 10 13 18 25 27 56 54 43 67 69 60 26 10 10 5 5 6 8 5 8 8 7 7 9
36 41 38 38 52 58 55 60 62 56 51 62 29 22 59 27 28 20 16 14 13 15 18 29 71 85 73 70 34 23 25 7 3 3 2 3 5 7 8 8 8 8 10 10 9
40 41 41 46 73 69 63 66 58 62 53 18 18 41 29 25 24 19 16 13 12 19 19 49 98 79 58 47 65 2 1 2 4 5 7 7 7 8 8 10 13 12 10 11 12
33 22 33 77 71 85 91 89 83 30 20 20 22 24 26 20 22 19 15 11 10 9 14 8 6 27 17 7 4 5 6 7 8 8 8 8 8 10 11 12 10 11 14 16 16
41 64 78 88 91 99 88 38 13 16 20 21 19 22 21 14 13 10 5 7 5 4 3 4 3 2 5 5 7 8 10 23 13 10 10 10 28 21 18 11 12 13 16 19 17
92 81 79 59 37 16 11 13 14 13 16 15 18 14 9 7 5 4 5 4 6 5 6 6 5 5 6 8 12 23 83 90 41 18 13 15 77 84 22 13 17 20 20 20 25
50 23 11 8 9 10 10 7 6 9 10 12 12 14 15 18 21 21 19 18 13 12 10 10 12 19 15 43 99 90 71 81 59 17 15 16 26 98 14 18 22 22 24 19 22
27 10 12 8 7 7 8 9 12 15 16 17 20 19 26 24 22 21 20 19 17 16 14 17 27 100 22 27 48 64 60 53 84 19 18 18 21 26 18 20 19 21 25 31 27
10 11 6 5 8 14 16 15 17 18 18 17 17 14 13 12 12 14 15 16 17 17 19 24 36 44 42 21 21 46 30 36 22 20 20 21 23 16 19 23 22 24 26 27 28
8 5 5 10 17 17 17 14 15 17 14 9 7 7 7 8 9 11 11 11 13 15 16 21 21 20 21 22 24 24 22 17 20 14 16 16 24 20 19 27 26 23 24 27 30
6 8 12 17 17 17 18 15 13 10 6 6 6 6 6 6 7 9 10 13 14 12 12 12 12 13 13 13 13 14 12 14 14 15 29 35 70 96 65 55 49 28 24 28 28
9 12 15 16 12 15 14 10 7 6 7 8 8 7 7 7 6 6 5 7 16 22 23 21 21 22 21 22 24 22 22 21 21 21 22 26 41 97 79 53 52 51 40 32 32
10 12 15 15 14 13 8 7 7 15 8 8 9 8 7 6 6 6 5 5 6 9 11 15 18 20 20 18 16 14 13 12 12 15 19 52 80 96 99 84 90 73 30 30 30
10 12 14 14 11 9 8 9 10 9 9 9 9 8 7 5 4 4 5 7 8 9 11 13 14 14 13 15 22 24 24 24 75 79 72 87 84 65 65 95 86 56 34 36 36
9 12 13 11 11 8 8 9 9 9 10 10 9 8 4 4 4 4 6 9 12 13 14 35 17 22 27 28 29 30 34 35 39 68 53 54 50 69 78 86 91 51 53 52 48
9 12 11 9 8 8 9 10 10 10 9 8 7 4 3 5 6 9 11 11 11 12 16 27 26 24 24 27 30 33 36 35 34 35 34 39 99 100 90 100 78 68 60 51 49
9 11 11 10 9 10 10 10 9 8 8 6 4 7 13 13 12 15 16 16 25 26 21 20 24 31 31 30 32 34 37 38 40 39 40 75 98 96 90 93 62 64 59 52 49
9 10 10 10 9 9 9 8 8 8 6 4 14 22 19 16 20 25 29 27 24 21 24 26 30 36 38 36 35 34 34 37 41 47 47 47 56 65 68 74 74 81 77 70 71
11 11 10 9 9 9 8 7 7 6 3 14 28 30 26 23 25 23 23 24 22 26 33 34 34 35 33 33 31 31 31 33 34 42 43 41 37 46 48 56 70 72 52 68 65
12 9 8 9 8 7 6 7 6 4 3 21 29 23 22 22 22 21 20 26 30 32 28 28 27 26 25 25 23 27 28 28 27 31 41 40 47 54 85 97 98 67 81 70 70
8 7 8 7 6 6 6 6 5 3 7 24 26 20 21 20 16 16 24 30 31 24 23 22 21 24 30 33 32 32 28 32 33 31 34 43 42 60 81 77 72 95 78 72 51
10 8 8 6 6 6 5 4 4 4 16 25 24 16 15 13 12 20 20 26 17 16 16 17 17 20 27 30 29 26 28 31 34 41 46 48 45 67 54 64 44 58 58 50 51
10 8 8 6 5 5 4 4 4 4 25 25 26 15 12 12 11 16 15 15 14 15 16 17 17 17 18 18 20 21 29 33 32 36 43 54 56 62 44 48 47 49 50 52 54
9 6 6 5 5 4 4 4 4 7 26 26 26 13 9 11 12 14 15 14 13 13 15 16 19 19 18 17 17 19 26 32 34 39 52 56 58 48 51 53 57 51 54 58 55

GFSSW_500_rhum_021.txt.gz
RH
36 40 41 41 33 21 21 26 29 32 32 37 35 47 46 48 37 36 37 34 32 39 13 51 34 75 18 91 94 97 100 95 86 96 96 95 75 19 9 11 8 6 10 3 3
38 36 40 46 39 27 22 27 25 26 28 38 42 48 59 48 38 41 32 25 21 10 4 4 9 12 65 87 81 78 82 96 97 90 85 71 37 16 18 12 8 10 8 4 4
36 34 31 36 41 42 46 53 43 35 32 39 43 47 48 48 44 35 19 12 9 7 6 6 8 13 78 74 64 66 67 67 78 73 62 33 11 10 9 6 6 11 5 5 5
31 30 30 33 47 51 57 67 58 44 31 38 45 48 52 46 31 20 18 14 13 12 12 17 15 19 46 60 63 64 61 61 58 58 52 12 8 4 4 6 6 7 8 7 6
42 42 36 40 35 39 57 71 66 50 45 57 54 56 48 27 32 21 17 17 20 26 45 50 55 72 48 55 59 41 28 42 60 44 11 5 5 7 8 8 7 7 8 10 9
49 44 37 42 40 49 52 56 65 68 72 65 62 41 22 30 48 23 16 16 28 37 56 43 82 84 77 74 32 12 6 3 3 2 2 6 7 8 10 11 9 8 8 9 10
50 41 42 41 37 70 65 63 74 81 83 54 26 25 48 28 26 17 15 13 11 21 18 14 85 78 46 25 3 2 5 6 7 9 10 11 12 8 11 12 13 11 8 12 14
61 36 33 23 71 62 61 90 100 87 29 20 21 47 29 26 18 16 15 12 11 10 9 10 19 11 7 7 8 9 13 10 21 18 14 12 10 19 14 10 10 11 13 12 13
29 31 44 77 81 84 92 96 42 16 24 25 29 29 28 23 19 15 12 7 12 8 4 3 10 7 10 67 66 80 98 85 82 31 14 14 11 16 13 14 13 12 14 17 15
70 89 89 94 93 93 40 16 17 22 25 26 26 26 21 11 9 8 6 6 4 8 14 23 37 51 83 45 57 84 99 86 75 32 22 23 23 62 15 21 24 30 30 22 16
88 60 13 62 39 12 14 19 23 25 25 18 15 12 12 11 15 16 15 12 10 18 31 39 14 18 20 45 92 84 78 75 49 20 22 23 36 34 22 22 32 29 25 23 20
81 35 10 13 14 15 13 12 11 14 14 12 17 21 27 26 27 26 24 23 25 25 26 39 25 54 76 49 47 84 62 47 12 18 22 20 22 24 25 31 36 24 27 27 28
13 10 14 12 10 8 10 12 15 18 22 20 21 18 16 15 15 16 16 18 19 21 19 23 40 42 30 19 24 21 23 28 23 16 20 20 25 20 25 46 54 51 66 48 34
10 11 9 9 11 13 17 18 18 21 16 11 9 8 7 7 8 10 12 12 14 16 13 17 18 18 18 18 18 16 15 17 14 15 19 18 27 21 22 21 45 55 81 46 57
8 7 10 14 18 19 18 15 14 11 8 6 7 7 6 7 7 7 10 14 16 16 15 16 15 15 17 22 21 21 23 21 21 21 21 22 27 90 79 48 44 58 55 81 57
6 10 16 18 18 16 15 11 10 14 8 9 8 9 8 7 7 6 6 6 12 11 10 21 24 23 21 20 16 14 12 12 12 12 12 23 49 78 90 86 78 75 99 88 93
9 14 18 18 16 15 9 8 44 34 9 9 9 8 7 6 5 4 5 6 6 6 7 8 11 11 11 12 14 17 19 21 24 59 40 46 84 92 89 65 55 57 59 57 48
13 18 18 15 16 11 8 9 16 9 9 10 10 9 7 5 4 5 5 6 9 11 11 9 14 16 22 20 22 20 21 21 27 36 48 54 52 80 83 81 88 92 94 86 86
14 16 14 14 11 9 10 11 10 9 10 10 9 7 5 4 5 5 9 12 13 13 14 18 21 21 22 27 28 30 32 32 33 35 39 45 64 92 95 95 98 99 95 88 89
13 15 13 13 10 10 10 10 15 10 9 8 6 4 8 9 9 10 13 13 13 18 28 22 24 28 27 30 33 32 32 33 32 33 39 51 68 64 62 76 78 75 98 90 58
12 14 11 12 9 9 10 10 11 9 8 6 5 13 20 15 14 17 19 23 29 24 20 26 29 34 33 30 25 23 23 26 28 28 32 36 45 54 57 54 59 58 62 62 65
10 13 12 10 10 10 11 10 9 8 7 4 14 27 28 21 20 22 27 28 21 23 26 34 32 32 28 27 28 24 24 23 25 30 31 32 40 50 51 56 70 99 98 79 90
10 11 10 10 10 10 9 8 7 7 6 5 24 29 24 23 20 21 19 20 24 30 30 27 27 24 26 28 29 24 21 20 22 24 30 33 47 50 43 47 48 54 70 90 74
9 10 10 10 10 9 8 7 7 6 4 6 28 27 24 23 19 21 18 25 31 28 24 22 20 19 22 23 21 19 19 20 22 28 25 30 27 42 41 41 52 59 59 52 55
9 10 12 10 7 8 7 6 6 5 4 8 25 24 19 19 16 14 20 26 29 20 18 16 17 17 17 17 17 16 17 18 18 26 28 29 33 32 42 52 55 57 56 59 60
10 13 11 10 9 8 6 6 5 4 4 11 24 26 15 11 10 11 17 20 24 15 15 16 16 17 18 18 18 18 18 18 17 21 25 29 35 38 44 55 69 68 62 60 65
10 13 9 8 8 6 6 5 5 4 5 11 27 24 22 15 16 14 19 18 17 15 15 14 15 16 18 19 19 19 20 18 18 22 23 27 38 44 51 55 50 54 64 68 60

GFSSW_500_rhum_024.txt.gz
RH
29 17 29 37 42 36 29 17 22 20 22 24 26 22 35 50 58 51 44 39 36 34 39 24 20 50 35 80 83 86 97 90 88 97 78 87 90 84 83 68 14 6 10 4 4
15 25 36 38 42 43 37 20 23 23 24 30 33 31 46 49 46 39 37 36 32 32 19 10 55 89 90 90 91 98 90 78 97 97 96 94 90 77 54 27 12 8 8 3 4
31 38 40 34 34 39 41 32 33 32 27 27 32 43 48 49 49 37 38 31 20 13 9 16 56 82 91 93 97 97 92 82 87 96 98 79 62 30 22 11 9 10 9 5 4
36 32 30 30 33 34 48 50 56 44 39 34 39 46 42 41 42 37 25 17 16 13 14 25 46 93 85 72 82 79 72 66 78 89 84 62 26 5 6 5 6 7 6 6 5
35 32 40 41 29 44 52 60 66 61 49 39 40 39 33 38 38 25 19 18 17 20 56 74 88 96 76 72 73 66 70 71 64 57 55 41 8 6 8 8 10 10 8 7 7
34 35 48 36 37 40 38 46 67 66 59 50 46 35 33 45 30 22 20 20 24 24 47 62 67 87 67 66 66 57 56 38 47 55 16 5 4 8 9 9 10 12 10 9 9
38 40 50 44 40 43 41 53 56 71 74 62 48 41 48 26 32 19 18 21 28 30 51 42 33 65 64 62 57 42 4 4 8 8 8 11 10 12 9 11 9 7 8 10 14
46 47 52 53 40 35 66 71 62 73 84 84 71 37 30 39 41 40 19 21 14 20 21 29 29 27 32 10 5 5 7 16 16 13 14 14 13 46 19 10 8 10 9 10 11
46 46 44 36 29 62 68 70 76 83 95 44 22 39 36 32 23 21 15 13 13 23 36 32 21 22 28 34 57 34 14 30 21 47 21 18 21 26 29 10 11 12 10 9 11
52 42 41 29 82 72 66 61 95 49 26 26 34 36 32 23 16 16 14 14 18 37 19 29 40 62 66 71 76 75 46 21 31 41 34 31 20 18 12 20 18 17 17 15 17
52 78 88 56 93 95 99 71 19 22 32 35 35 31 26 21 16 14 15 16 11 16 75 40 36 42 42 84 82 90 78 54 48 37 33 50 37 19 17 17 22 26 32 27 28
79 66 23 91 95 79 18 16 22 24 27 28 24 20 13 10 10 10 8 12 20 29 20 17 18 37 40 46 95 94 82 66 32 34 44 28 24 22 24 21 20 28 36 31 69
51 52 13 21 28 14 17 24 28 25 22 18 16 14 17 22 23 25 23 24 29 28 15 24 34 26 34 53 50 90 79 59 56 30 29 21 19 18 16 18 26 51 64 91 100
17 27 11 12 15 18 18 21 18 18 21 22 26 22 18 18 17 19 21 20 19 19 20 30 46 26 24 26 22 23 31 45 33 20 20 18 22 20 18 20 21 22 36 44 100
10 10 12 14 16 16 16 16 21 22 24 17 13 10 9 10 10 12 12 14 16 18 19 18 18 15 16 20 16 16 16 18 20 23 24 24 27 27 31 27 30 55 100 100 99
10 10 10 12 15 17 18 18 17 14 10 9 8 8 8 9 8 9 10 13 17 18 24 24 25 27 28 26 25 23 19 16 14 13 13 16 18 33 40 51 78 96 97 90 82
8 8 12 16 20 19 18 14 15 15 8 9 9 9 9 9 8 8 7 8 11 13 15 20 21 16 13 11 11 13 18 21 21 25 42 34 44 50 86 78 82 66 47 52 59
8 13 18 18 18 16 14 18 43 11 10 10 10 9 8 8 7 5 6 7 8 10 9 9 10 10 12 16 17 19 20 22 25 28 38 34 45 49 34 61 38 50 67 84 95
11 17 18 19 16 16 12 58 17 9 10 10 10 10 9 6 5 4 5 6 8 10 11 15 24 20 17 23 26 27 31 31 31 34 36 36 36 35 35 45 66 99 98 94 67
14 18 19 17 15 12 11 18 11 10 10 9 8 6 5 4 5 5 8 10 10 11 14 22 19 22 25 30 30 25 21 22 24 25 29 26 30 33 41 50 45 46 51 57 56
16 19 18 15 11 8 10 12 10 11 10 8 6 7 10 12 10 10 13 14 12 20 19 19 25 31 32 25 25 22 22 22 22 23 23 26 29 31 31 31 35 38 39 43 57
18 18 15 13 10 10 10 11 14 11 9 6 7 23 25 16 14 19 19 20 26 19 22 27 31 29 28 25 25 23 21 20 18 20 22 23 25 24 25 29 36 48 52 65 84
17 17 13 12 10 11 9 10 13 9 8 5 11 30 30 23 23 25 22 24 20 23 30 30 30 26 26 28 27 24 19 16 14 15 17 20 23 23 23 29 44 48 48 56 68
14 15 12 12 13 11 9 10 11 8 7 5 16 30 26 20 24 22 22 21 24 31 27 25 26 22 20 23 20 18 16 16 16 16 17 19 20 24 26 34 39 47 56 55 56
12 14 13 12 10 10 9 10 8 7 6 4 10 27 23 21 21 19 19 23 30 30 25 24 19 17 17 17 17 17 18 18 18 18 18 19 20 24 29 30 36 42 46 49 53
10 12 12 12 11 11 10 9 7 6 5 5 8 24 19 14 20 22 19 27 32 31 22 18 16 16 17 18 18 19 20 20 19 19 19 19 19 22 25 30 43 52 58 62 63
9 10 11 11 10 9 9 9 6 6 5 4 5 22 28 25 19 25 22 26 32 33 22 16 16 15 15 16 18 19 20 20 19 18 20 19 19 21 24 33 46 56 65 71 73

GFSSW_500_rhum_027.txt.gz
RH
48 52 36 35 18 28 42 38 25 15 16 12 17 17 16 21 36 58 62 55 52 41 40 39 45 26 61 98 95 100 95 93 89 91 94 91 96 96 95 93 94 65 12 12 8
56 61 44 19 28 35 41 44 29 20 23 21 21 22 21 25 50 61 58 52 42 37 36 44 23 48 69 61 91 77 75 96 96 95 89 94 94 82 49 26 33 14 10 8 4
59 38 19 35 39 37 38 44 35 24 27 24 29 32 31 42 52 51 45 42 38 33 30 15 15 45 34 58 71 77 83 92 90 80 86 86 70 50 20 8 9 10 10 4 4
49 24 27 36 31 32 35 33 39 39 35 37 26 32 43 47 47 52 44 39 24 18 15 17 28 40 81 87 98 97 94 100 100 92 88 79 69 59 6 5 7 9 9 7 7
31 21 35 32 39 38 32 35 48 65 54 34 34 42 42 44 52 46 35 22 20 20 20 77 97 98 100 98 99 88 81 80 72 68 76 69 57 9 10 9 9 9 9 8 8
25 25 35 34 42 40 35 50 54 66 66 38 32 38 41 47 54 39 24 22 29 20 45 91 91 94 92 84 81 89 73 66 53 54 57 22 5 8 11 10 9 10 12 10 9
20 27 37 37 49 38 40 37 42 66 68 46 38 40 52 54 43 30 22 20 18 54 74 84 92 80 79 76 74 63 62 32 35 27 6 5 7 12 10 12 13 12 10 10 9
21 32 39 45 47 48 43 44 51 58 68 53 39 67 65 40 31 26 20 20 24 62 76 82 93 81 72 70 65 63 34 25 9 7 10 11 13 19 18 13 10 8 8 9 11
23 36 43 47 50 52 40 67 73 55 72 78 78 71 30 30 33 24 20 25 34 57 61 68 79 79 69 59 47 19 29 15 14 15 14 17 20 33 42 28 10 7 10 12 12
24 37 50 35 49 40 48 74 64 68 73 87 54 29 51 45 59 30 19 32 58 60 58 54 43 59 50 21 9 13 24 19 30 46 23 21 21 19 20 20 12 15 15 14 16
30 50 45 40 43 57 77 69 60 89 58 34 39 46 43 34 25 32 21 24 48 50 60 35 34 32 29 34 30 49 27 44 31 34 52 37 20 16 16 17 21 22 24 20 21
53 60 76 51 85 80 69 86 84 33 30 34 39 37 23 16 18 20 26 33 30 42 32 14 36 33 52 71 68 72 37 33 33 35 34 19 19 18 16 15 15 14 17 48 71
44 68 46 80 73 84 78 38 23 28 32 36 35 28 22 18 15 13 13 15 26 62 23 35 37 70 90 85 82 73 69 73 68 56 43 35 18 17 18 18 22 36 40 86 89
38 68 18 62 75 55 17 24 29 30 29 24 18 13 13 12 9 9 12 20 19 23 31 31 25 25 33 31 36 54 62 71 65 56 56 36 23 16 18 27 52 40 38 62 90
23 33 25 12 16 16 26 29 27 21 19 16 22 28 26 26 26 27 23 22 22 22 21 30 36 32 25 22 23 23 25 22 18 17 20 23 22 22 22 23 26 41 49 58 93
17 13 14 13 17 21 20 18 19 22 25 25 23 18 16 18 18 19 21 21 22 22 24 31 25 19 17 16 20 25 26 26 25 23 23 20 18 14 16 21 30 53 77 96 98
12 13 14 18 16 18 18 20 24 26 17 15 10 8 9 9 9 10 12 13 16 21 30 25 19 23 26 28 25 21 16 16 17 20 20 20 30 36 35 40 54 43 99 84 62
11 14 14 15 17 21 22 23 20 16 10 9 8 9 10 8 10 9 9 10 16 21 30 24 19 18 13 12 16 20 21 19 21 23 22 26 26 25 29 29 30 33 38 42 60
11 12 12 16 21 24 19 13 14 8 9 10 10 10 10 10 10 9 8 8 9 8 11 14 13 13 16 19 22 26 29 30 27 22 21 19 19 22 23 24 24 29 32 44 48
12 11 14 19 21 19 13 17 18 9 10 11 12 11 10 9 7 6 6 6 7 8 11 15 20 23 22 26 29 25 20 21 21 21 22 20 19 20 19 18 23 29 34 39 44
13 13 18 19 17 15 15 44 12 11 12 11 10 9 7 6 5 5 6 7 10 11 13 21 21 26 29 30 22 21 21 22 20 19 18 16 17 18 20 19 19 22 26 31 35
16 17 17 16 15 12 25 19 14 12 10 9 6 7 12 13 10 8 9 13 12 14 20 20 28 31 31 26 25 23 23 21 17 16 15 16 17 16 18 20 20 19 19 22 24
17 19 18 14 14 10 12 13 12 12 10 8 7 18 27 21 17 17 17 17 16 23 18 26 31 31 29 27 27 28 25 18 16 17 16 16 16 17 18 19 20 22 22 23 28
19 19 17 14 15 11 9 13 13 12 11 8 7 25 30 27 24 26 24 27 22 20 24 31 31 31 25 25 25 22 18 18 18 17 17 18 18 17 17 18 20 23 25 28 34
16 18 15 14 12 10 9 11 13 12 10 7 5 23 28 25 26 26 28 26 23 26 31 29 27 24 20 18 18 18 19 18 19 18 18 18 18 19 18 19 20 23 28 31 34
15 19 15 16 16 10 9 10 12 10 7 6 5 14 32 28 29 23 24 24 26 31 32 27 25 20 17 17 17 18 18 19 20 19 19 18 18 19 20 20 21 24 27 30 32
16 18 16 15 13 10 10 10 11 10 6 6 5 9 28 30 22 23 22 22 27 32 33 26 20 16 15 15 15 16 18 18 19 19 19 18 18 21 23 25 24 26 29 35 38

GFSSW_500_rhum_033.txt.gz
RH
16 14 18 9 8 20 41 19 21 27 27 40 22 18 14 10 14 26 21 19 44 68 62 63 64 70 68 54 73 70 92 96 96 100 98 82 96 94 96 97 95 94 66 33 17
16 16 17 9 8 26 35 25 31 26 34 42 24 20 21 14 17 16 17 34 69 70 60 56 62 70 66 57 55 89 95 99 97 97 80 96 97 96 96 95 94 58 32 18 11
14 18 17 11 9 29 24 34 33 31 34 41 30 26 20 19 19 18 25 44 68 59 51 42 45 57 63 50 75 84 93 95 96 96 91 97 88 80 65 70 25 10 14 13 8
11 17 19 9 12 30 25 34 33 35 35 38 32 31 32 24 28 25 47 62 54 48 47 43 40 45 48 50 94 100 99 90 98 96 98 95 86 64 30 8 6 8 15 9 9
12 20 20 8 18 27 33 36 36 39 40 33 37 39 33 28 35 46 55 52 43 41 40 27 26 24 53 100 96 95 90 96 93 95 83 93 71 63 18 9 9 12 12 10 9
14 20 18 8 23 27 36 37 41 38 31 41 47 46 36 34 44 54 56 44 38 32 21 42 75 89 75 78 96 98 96 94 89 73 74 62 61 61 16 11 10 10 10 12 16
12 16 15 9 24 25 34 39 42 36 48 56 55 58 37 42 52 56 54 45 31 44 83 93 78 78 88 97 98 96 91 84 83 90 71 66 54 34 34 15 14 15 16 16 18
18 19 14 14 27 25 36 45 48 42 40 56 55 72 40 50 52 58 53 32 33 88 90 89 88 96 99 97 92 97 90 76 50 41 56 31 14 24 15 13 19 23 19 16 19
25 22 12 20 21 25 39 46 52 58 44 44 64 77 48 63 54 51 39 32 84 100 100 99 99 92 93 88 80 69 56 58 38 37 18 10 14 22 18 16 20 31 23 22 24
26 20 11 24 20 24 40 45 51 60 46 54 72 81 63 61 56 44 35 51 93 100 100 94 98 83 80 77 73 61 61 52 23 14 12 14 28 36 66 50 35 38 29 23 25
24 19 14 26 20 28 49 50 55 52 68 58 80 82 71 52 45 38 39 77 99 98 100 100 93 84 80 65 59 37 39 28 18 11 14 17 20 32 52 38 31 36 30 25 22
22 16 22 22 21 43 41 49 50 66 65 72 84 85 64 40 39 41 46 84 94 100 100 99 86 97 86 78 71 40 40 58 17 23 22 24 24 26 26 24 22 20 20 19 19
20 15 28 21 28 46 39 39 63 67 72 95 88 49 40 43 40 55 53 87 99 99 97 90 65 56 57 55 62 39 77 81 57 65 44 33 26 26 24 18 16 16 18 18 20
18 20 25 23 35 59 53 67 69 78 90 76 44 47 60 63 59 61 80 97 97 99 94 82 65 52 61 65 82 46 25 20 28 42 32 26 20 22 18 13 16 20 21 21 23
18 26 24 28 50 67 78 75 90 100 64 41 47 47 19 19 28 40 55 88 96 90 98 85 72 59 59 55 30 66 82 76 58 27 24 16 14 14 18 17 17 16 17 18 25
17 23 27 38 60 77 80 52 46 35 36 38 35 22 18 17 19 25 47 75 82 83 54 58 45 43 36 30 66 44 31 29 28 20 14 18 16 13 18 18 23 29 29 34 40
20 24 30 40 50 66 61 25 29 32 36 34 26 20 17 16 17 18 24 32 28 26 24 29 31 42 47 49 43 35 21 18 20 21 14 16 17 23 29 30 24 24 24 27 29
23 29 30 28 26 44 22 28 28 29 20 16 16 16 15 12 11 11 12 11 14 19 28 30 38 37 35 34 25 19 22 23 13 16 19 23 18 18 17 17 16 16 16 17 18
23 28 32 21 22 18 25 24 23 19 17 23 30 31 30 26 23 22 22 22 23 26 30 30 26 27 27 30 28 21 12 16 22 26 19 18 18 19 19 18 17 17 17 18 18
27 32 39 14 24 18 25 21 17 21 27 27 23 19 19 18 17 12 12 12 11 14 18 22 24 25 24 18 13 13 21 27 25 19 20 17 16 16 17 17 16 16 17 16 16
31 39 32 24 28 21 20 16 22 27 26 19 13 11 11 11 10 10 10 10 10 11 12 14 16 16 14 14 19 24 30 25 21 20 16 16 17 17 16 16 15 14 15 15 17
36 40 22 21 16 18 18 20 27 24 17 12 10 10 11 11 11 11 10 10 9 9 9 11 12 15 25 23 24 31 25 22 22 22 19 17 17 17 17 16 16 15 16 19 22
42 23 42 22 14 16 20 23 25 19 11 11 12 12 13 12 12 12 11 9 7 9 9 11 12 18 26 23 29 24 23 25 26 26 21 17 18 18 17 17 16 15 16 20 24
30 18 40 15 18 22 20 17 18 14 10 13 13 10 8 10 16 14 9 8 7 8 12 14 15 21 27 29 30 25 27 28 27 25 18 18 18 19 18 18 18 18 17 17 19
22 19 30 13 20 20 18 17 21 13 15 13 10 8 12 28 30 23 16 13 12 12 15 14 19 23 29 30 27 23 25 24 22 18 18 18 18 19 18 18 18 18 18 19 20
18 22 28 21 25 17 14 28 18 16 16 13 11 8 8 29 35 31 23 22 22 20 18 20 22 24 29 28 24 22 20 18 18 18 17 17 17 20 18 18 18 18 19 21 21
28 26 24 26 22 16 13 38 19 18 16 15 12 8 8 25 35 31 28 27 28 25 23 21 21 26 26 25 22 16 18 17 17 16 16 16 18 19 20 20 20 20 21 22 23

GFSSW_500_rhum_036.txt.gz
RH
17 15 13 14 17 19 15 8 23 24 24 22 31 35 21 18 16 10 14 17 18 20 24 39 41 44 63 81 61 63 75 79 100 91 93 76 58 68 92 97 96 95 96 67 57
19 16 13 13 15 20 17 8 27 25 25 23 30 38 25 20 16 13 17 18 16 34 61 58 73 65 88 73 51 61 82 92 98 99 96 97 93 96 97 95 96 96 64 18 24
20 16 14 14 19 20 18 10 26 28 26 30 32 39 28 26 23 18 16 17 23 64 73 65 63 68 77 64 55 50 61 92 81 100 94 96 96 75 51 77 60 58 19 12 11
19 16 14 21 21 19 17 12 28 32 34 35 38 36 30 33 25 23 20 24 39 68 63 56 51 53 57 61 50 54 96 84 85 96 96 96 93 58 17 10 14 18 15 9 11
22 15 14 20 16 16 16 18 27 36 38 38 39 33 38 37 26 28 29 50 61 59 57 54 48 43 50 51 53 96 90 76 96 96 98 86 74 53 21 9 11 19 15 10 11
23 14 15 18 24 21 14 23 28 37 40 37 32 44 54 38 34 35 50 59 49 43 40 36 32 44 39 54 76 100 96 94 93 91 82 60 64 57 26 12 11 10 10 10 15
22 16 20 33 28 22 13 24 30 41 43 36 43 58 64 41 39 48 58 55 47 32 27 28 34 42 53 100 98 99 96 90 95 92 86 79 68 56 17 19 22 18 18 18 17
23 21 28 36 29 17 16 22 33 42 45 41 50 58 62 41 41 53 58 46 29 41 84 72 79 80 89 91 96 92 96 96 96 78 66 60 48 30 13 27 37 30 24 19 18
23 25 34 34 24 15 20 22 31 45 49 57 45 50 66 48 48 54 56 38 41 93 96 96 97 100 97 98 93 94 92 73 54 48 52 24 20 15 13 24 41 46 36 28 20
31 35 39 28 24 15 22 21 38 46 55 61 50 49 72 60 56 52 46 39 70 93 100 98 99 97 98 98 86 75 63 55 49 38 28 16 22 28 42 59 52 58 44 32 26
48 41 28 26 21 19 20 28 43 44 55 52 53 62 79 67 60 53 39 42 100 93 94 97 98 99 99 88 79 70 57 77 54 26 14 17 35 31 37 57 39 32 36 35 28
39 40 24 23 18 21 22 42 43 50 52 59 62 65 77 69 54 46 38 44 99 96 95 98 100 86 76 69 75 37 61 85 50 32 24 22 30 41 50 44 30 26 26 24 19
26 23 19 21 19 23 30 45 38 44 52 59 58 73 82 66 45 40 40 66 84 97 98 99 93 92 86 86 82 70 54 63 52 51 46 44 35 33 28 24 21 20 20 20 19
14 20 20 21 21 29 51 44 38 51 64 58 72 85 82 51 40 43 51 80 89 100 86 94 74 70 62 63 66 64 52 47 83 84 92 49 80 38 26 34 27 21 25 24 20
10 17 17 20 23 40 50 51 54 65 61 64 76 65 48 44 56 44 60 86 90 87 99 94 83 74 70 57 58 69 41 54 64 55 37 36 36 84 20 20 23 24 21 17 17
10 13 19 21 28 42 54 66 66 71 79 71 59 49 56 52 53 57 59 71 92 97 100 99 93 92 76 64 72 63 75 64 63 65 28 22 21 43 20 19 16 14 15 24 30
10 14 20 20 31 43 54 59 59 58 53 41 42 49 23 18 24 38 44 64 90 92 85 82 59 63 47 44 42 47 65 35 24 21 18 19 16 17 21 21 26 26 22 21 21
11 17 16 21 32 41 56 45 49 33 30 35 42 29 19 18 20 22 31 44 59 80 85 68 39 33 34 50 53 56 39 28 20 24 17 15 20 22 19 16 16 16 16 16 16
14 18 14 20 33 36 52 37 33 27 30 34 32 20 16 14 16 18 20 24 26 23 43 28 33 36 42 38 34 26 23 26 21 14 22 23 20 18 18 18 17 17 16 17 18
22 20 23 25 34 36 42 34 26 24 24 22 16 12 13 11 11 12 13 14 16 23 31 32 31 29 28 25 22 25 24 16 19 25 22 21 17 15 15 16 15 15 15 15 15
32 24 23 34 34 26 31 26 24 19 13 14 20 27 28 27 25 23 22 21 20 20 20 20 22 23 24 25 20 15 13 22 30 23 20 16 16 16 16 16 16 16 15 14 15
33 23 25 38 31 42 28 23 20 14 17 24 26 20 14 13 11 11 10 11 11 11 11 12 12 13 16 15 13 12 20 30 24 23 20 19 17 17 18 18 18 17 17 16 16
46 29 42 50 33 34 24 24 16 19 25 24 17 10 10 11 11 10 10 9 8 8 8 8 8 9 10 13 23 23 30 27 22 22 22 22 19 18 18 18 18 18 18 18 18
48 58 69 81 55 25 23 21 18 24 22 15 10 10 12 11 12 12 11 10 9 8 8 8 9 11 13 23 27 27 30 23 22 23 26 24 19 18 17 17 18 18 18 18 18
44 63 71 74 29 29 28 17 25 21 14 11 12 13 12 10 8 10 11 10 9 7 7 8 12 14 18 20 25 28 28 22 22 26 24 20 18 18 18 17 18 18 19 19 19
40 71 78 90 31 30 24 27 25 16 11 14 14 12 9 10 25 31 27 21 15 14 12 14 15 15 19 23 27 28 26 22 24 24 20 18 18 18 17 16 16 16 18 21 20
48 73 81 76 38 28 21 28 22 22 14 16 15 11 8 9 27 33 32 28 26 26 22 19 19 21 21 23 25 22 26 24 23 22 21 18 20 16 16 16 17 21 24 23 23

GFSSW_500_rhum_042.txt.gz
RH
25 26 29 32 31 24 20 18 16 18 25 21 10 8 18 18 17 19 27 22 13 11 15 16 19 28 38 77 93 84 78 65 72 96 66 80 95 96 96 70 58 49 62 71 82
27 30 33 35 32 25 22 22 18 19 26 20 9 12 22 29 27 33 32 25 15 14 18 20 23 53 74 51 92 88 81 71 89 87 94 79 93 91 96 94 81 60 78 83 66
33 36 38 38 33 27 25 24 18 24 29 19 9 16 26 32 32 35 32 26 18 15 17 28 52 66 82 75 62 92 77 96 96 93 79 54 76 83 92 75 66 78 77 98 98
39 40 41 38 34 30 29 25 19 28 32 18 10 19 30 30 32 34 31 29 21 16 19 75 79 75 78 76 76 88 75 82 100 99 60 64 76 76 79 84 97 96 88 93 80
42 44 43 38 37 38 36 25 21 33 35 16 13 22 33 35 35 43 37 31 25 24 57 72 72 70 68 74 81 86 89 85 68 86 72 74 99 71 93 85 90 85 36 24 12
44 45 43 42 44 43 40 25 24 34 30 14 16 26 38 38 49 52 38 34 30 49 67 66 65 61 60 80 92 94 70 89 56 54 64 79 93 86 86 66 78 26 11 11 10
47 45 45 48 48 46 43 25 25 36 23 14 18 29 40 45 54 44 30 39 52 58 53 48 49 54 51 54 81 93 73 70 60 81 92 98 99 94 62 44 43 26 38 26 11
48 48 43 42 39 42 43 27 30 36 21 14 19 32 42 49 49 45 37 44 56 51 45 39 32 36 43 42 55 74 89 85 97 96 95 95 97 68 56 24 16 14 13 17 16
52 42 34 36 31 33 42 31 35 28 19 15 21 36 44 49 44 49 40 45 49 44 36 33 28 41 44 76 93 100 93 95 91 100 97 95 74 38 30 15 13 17 20 21 18
34 27 27 29 24 27 40 35 35 23 16 16 22 40 44 49 46 54 44 53 48 36 52 60 62 93 91 98 96 97 88 93 97 56 94 76 60 29 27 19 22 31 30 27 17
28 24 22 23 17 22 35 37 26 20 16 16 28 41 46 49 49 60 51 51 47 48 78 74 100 98 100 95 96 99 97 97 92 61 41 60 87 16 20 41 51 55 33 32 30
25 20 12 10 14 19 29 24 23 17 16 15 30 39 42 48 56 65 58 50 55 75 82 84 81 97 96 93 98 100 96 92 93 52 26 23 80 21 14 17 28 26 24 30 33
21 14 10 8 13 16 22 21 21 19 14 16 31 40 27 36 60 67 62 46 97 74 97 94 71 83 100 87 96 100 86 94 91 58 15 85 63 54 27 27 25 20 18 18 18
8 6 5 6 11 15 15 22 22 19 14 18 35 41 25 33 52 58 77 45 93 87 99 98 87 86 86 100 100 96 88 89 89 73 32 75 96 98 94 67 63 55 31 26 21
11 5 3 4 7 13 15 23 18 20 19 25 40 46 34 37 39 57 54 46 60 90 90 78 94 96 90 96 96 68 96 88 100 100 90 88 85 70 80 71 60 75 61 39 28
12 5 3 3 4 8 21 22 18 19 23 31 38 50 45 54 57 84 54 46 52 66 99 90 78 83 98 77 75 54 39 35 61 66 82 92 96 79 82 96 96 99 54 45 27
9 4 2 2 2 6 12 20 19 14 41 34 34 51 57 62 67 58 62 37 41 66 100 82 79 74 52 54 42 37 62 87 98 92 70 85 70 100 88 70 63 15 17 24 27
6 4 3 2 2 4 11 16 14 27 41 58 38 50 62 57 44 44 46 42 46 59 100 92 99 71 58 64 82 28 91 86 92 88 93 85 88 74 41 42 48 22 20 18 18
5 3 3 2 2 2 9 8 8 48 54 88 48 69 69 88 76 45 53 62 62 54 100 87 84 86 56 39 42 97 98 70 86 58 36 37 35 35 64 34 20 18 18 17 16
7 3 3 2 2 2 4 5 13 51 62 96 68 63 98 78 45 53 37 41 73 79 100 97 78 92 84 39 22 23 40 46 34 22 14 69 82 92 86 62 17 16 16 15 15
4 4 2 2 2 2 3 4 17 46 47 84 40 88 97 99 62 20 27 43 44 100 84 76 96 97 100 26 24 38 47 26 26 34 24 25 94 86 63 40 16 16 16 16 16
4 4 4 2 2 2 2 3 25 57 37 54 30 84 86 100 84 17 50 87 39 32 31 29 84 100 79 47 21 28 42 45 22 18 13 17 46 76 63 23 16 16 16 16 18
3 3 8 7 3 2 2 5 25 40 42 43 26 32 69 66 91 34 100 87 33 13 16 24 22 31 46 54 25 16 18 22 17 12 12 24 27 25 20 22 21 20 17 17 18
2 2 11 24 4 2 2 6 29 35 53 36 24 29 29 19 61 30 70 38 25 20 20 19 17 18 14 14 99 89 53 13 13 13 18 27 24 42 25 22 20 20 19 18 17
2 2 3 4 5 2 4 22 33 34 41 32 24 19 13 18 32 22 19 13 11 11 11 10 9 10 11 10 58 26 42 65 30 22 23 27 23 24 37 87 39 22 17 16 20
2 2 2 5 8 6 4 12 30 35 36 30 22 14 18 25 19 12 11 9 10 11 11 11 11 11 10 9 8 8 10 13 25 26 28 27 24 25 33 27 27 24 22 26 25
2 2 3 4 11 17 8 23 25 42 32 30 20 14 26 47 40 12 10 20 11 9 12 13 13 12 10 8 8 10 15 20 25 30 32 31 31 32 32 27 17 24 31 27 30

GFSSW_500_rhum_045.txt.gz
RH
27 25 24 24 27 32 35 31 26 25 23 22 23 14 8 6 13 17 26 34 31 24 12 14 20 22 27 89 97 86 75 69 77 97 100 96 95 95 94 96 70 62 38 31 47
31 30 29 27 32 37 37 32 28 29 24 24 21 17 9 7 15 18 22 31 30 20 14 14 19 25 43 62 90 96 83 74 79 94 96 89 74 56 78 84 81 65 78 74 66
35 35 34 32 38 41 37 33 31 33 26 25 22 19 9 8 15 23 26 33 30 27 14 15 18 27 66 72 69 99 76 89 76 69 82 95 70 62 75 64 59 90 97 95 84
44 42 39 36 41 43 38 35 35 37 29 26 22 16 9 12 19 28 27 34 32 31 17 18 57 62 65 80 75 89 79 86 100 77 82 71 56 80 86 94 66 89 97 95 95
53 49 45 41 44 44 40 40 40 39 30 27 22 15 9 16 25 31 38 45 36 34 25 54 77 74 80 75 80 58 96 93 100 77 75 40 56 99 100 99 83 96 98 92 84
56 53 50 47 48 45 42 41 36 38 30 26 22 14 10 18 30 38 47 41 30 35 60 67 71 70 72 74 82 90 99 87 100 100 88 57 54 69 93 75 94 92 93 55 73
56 55 53 53 51 46 42 34 30 34 30 24 22 11 12 20 32 43 43 37 40 53 59 53 63 61 59 64 83 86 78 83 85 80 77 54 72 82 80 64 49 65 56 34 60
57 56 55 54 53 47 38 32 23 30 29 25 18 11 14 26 37 45 42 39 37 50 46 43 36 40 52 51 52 82 77 78 72 71 92 97 85 64 62 30 18 26 23 48 62
59 57 54 55 53 39 37 26 17 22 27 26 16 12 14 29 39 45 42 39 39 40 40 36 34 30 38 52 48 75 91 86 93 97 98 95 65 51 53 29 17 16 14 13 12
61 59 58 57 38 28 33 24 16 19 27 18 15 12 18 30 36 44 44 44 36 42 58 62 51 39 44 58 52 64 90 99 82 87 57 83 72 25 11 10 12 13 13 12 12
69 60 53 40 29 25 28 20 15 19 21 16 13 11 18 34 27 41 50 43 43 68 57 99 72 100 67 84 98 99 97 99 74 100 68 46 20 7 12 13 20 19 12 10 9
71 60 41 31 26 21 16 15 14 16 18 14 13 12 29 31 14 42 47 56 48 49 91 99 81 93 98 97 92 85 88 97 84 98 71 30 14 14 35 14 17 18 15 16 19
65 50 39 30 22 17 10 13 13 13 10 15 13 19 31 28 17 42 43 56 48 60 76 91 71 66 98 88 96 83 90 99 97 86 47 51 71 59 38 22 27 17 18 17 17
47 37 27 28 22 12 11 13 14 11 11 13 13 24 32 25 19 33 47 49 47 92 76 70 100 80 95 77 96 87 97 88 82 84 40 72 79 81 83 89 96 59 57 51 58
30 25 17 19 8 5 6 12 18 12 14 10 19 26 24 35 23 34 45 39 42 62 78 62 89 87 70 71 98 100 73 83 80 88 80 95 81 82 98 90 99 80 44 28 25
42 22 14 6 3 5 4 7 12 13 16 12 21 22 19 30 35 40 43 51 56 57 53 55 77 73 75 97 84 80 38 83 95 90 89 71 91 97 72 97 94 72 86 50 31
85 18 13 9 3 4 4 4 9 11 17 14 25 20 22 35 48 61 59 55 42 41 71 68 89 94 100 79 96 71 42 32 32 44 36 94 65 87 88 63 33 35 38 53 25
50 94 32 5 3 3 2 2 5 11 19 15 20 27 22 40 55 66 54 47 39 40 55 74 89 69 64 100 67 63 41 66 75 74 64 100 78 80 55 51 30 38 20 20 20
21 21 87 80 63 15 2 3 10 11 22 28 28 29 24 28 44 51 45 44 37 45 51 77 68 97 91 69 61 65 76 64 87 76 67 80 63 46 34 35 80 42 20 20 19
24 23 13 4 20 4 2 12 8 14 24 24 45 35 26 32 52 82 51 49 41 43 69 71 92 93 98 62 41 41 79 82 48 28 17 28 52 73 56 97 87 58 18 18 17
20 22 17 3 14 7 27 16 7 15 16 22 44 43 29 39 71 86 60 48 51 66 55 58 77 82 77 96 34 47 46 38 38 22 15 21 74 81 95 92 69 47 18 17 17
12 22 19 7 5 24 34 15 6 14 23 22 34 43 32 56 78 67 60 37 61 100 100 54 40 51 95 84 35 59 35 40 38 28 31 14 20 59 100 82 65 54 18 17 17
7 10 15 7 11 18 33 22 6 10 13 15 34 48 34 73 100 88 69 52 77 100 98 60 40 52 65 64 64 62 39 27 26 19 13 11 14 25 41 59 56 34 18 20 21
3 4 7 8 14 9 30 21 6 7 13 15 33 56 40 47 88 99 66 28 44 68 70 17 18 16 14 33 32 34 45 41 40 22 11 12 15 39 38 29 26 22 20 18 21
3 3 6 13 18 15 13 18 3 4 13 26 26 43 35 40 65 71 99 43 26 24 19 15 16 19 19 13 13 10 14 23 61 48 21 27 35 37 38 30 34 30 18 18 22
3 4 4 8 9 10 6 9 3 5 21 24 33 41 32 30 23 30 22 12 17 20 19 17 14 11 8 9 8 9 6 11 14 13 18 32 31 38 32 29 28 25 24 28 35
3 4 4 4 5 8 11 10 4 8 14 34 45 53 29 23 20 20 28 19 15 11 10 9 10 10 9 10 11 11 10 8 12 16 21 28 30 34 33 25 23 25 29 34 37

GFSSW_500_rhum_048.txt.gz
RH
25 28 28 29 27 27 26 31 37 33 30 30 30 26 19 12 8 6 16 21 24 32 25 18 14 14 19 47 95 96 88 84 93 91 71 71 84 71 79 94 88 92 70 69 65
30 30 31 32 31 32 31 34 40 35 32 32 32 25 17 13 8 8 18 21 23 33 28 19 16 16 19 59 93 99 94 73 92 80 88 72 71 58 52 41 66 95 95 77 53
34 35 37 38 37 37 35 36 42 36 34 34 29 20 15 12 7 14 21 26 30 34 32 24 16 18 28 47 90 98 84 86 94 85 89 71 61 50 34 43 66 66 75 66 94
43 44 44 44 44 43 41 40 44 37 32 31 25 22 16 12 8 14 25 32 38 43 35 25 17 44 78 90 79 81 94 98 96 89 68 65 49 46 51 58 65 74 62 77 94
52 52 53 53 53 50 46 45 46 38 30 25 24 25 17 9 11 17 30 36 38 30 35 25 64 82 79 90 84 49 98 96 85 73 72 52 50 58 58 82 75 68 72 77 97
64 62 63 61 58 55 51 50 46 38 30 18 26 24 20 9 11 22 34 40 40 34 41 61 74 78 82 83 80 72 90 99 97 70 55 47 48 49 63 89 85 82 92 96 94
66 66 64 62 59 55 54 52 46 35 27 16 26 23 19 10 12 28 38 40 40 42 57 60 64 74 69 69 75 72 83 94 75 71 62 60 57 75 93 78 60 64 42 75 90
68 66 62 61 58 56 54 50 45 32 19 16 23 23 16 9 13 31 43 35 38 38 48 44 42 54 63 58 69 82 84 97 93 81 75 71 80 96 94 32 29 30 30 66 24
72 69 67 64 61 56 54 51 41 25 18 18 18 22 13 10 20 31 42 36 36 38 39 40 41 36 45 54 55 89 82 72 75 76 96 94 66 86 54 32 13 12 13 15 14
84 79 75 65 62 58 54 51 31 20 21 17 18 18 12 11 25 27 33 37 40 33 34 36 39 33 36 44 71 62 89 99 99 79 66 81 30 20 20 17 20 16 13 33 19
96 96 95 91 72 62 58 41 24 23 20 17 16 16 10 13 27 17 27 35 45 35 45 77 43 39 85 96 100 83 95 91 89 97 58 59 37 16 11 23 41 26 18 20 15
92 95 96 94 81 75 58 31 24 22 21 17 18 16 11 15 24 16 18 35 49 32 51 83 76 80 81 87 96 89 96 96 81 79 60 46 25 18 12 13 26 44 27 22 29
83 79 86 95 95 87 49 29 27 17 14 20 16 15 12 15 20 17 16 26 46 35 59 94 87 96 98 97 84 80 72 73 75 77 83 81 37 29 15 15 51 48 24 19 19
84 80 77 82 85 80 51 40 32 18 13 19 15 13 14 15 18 18 16 29 39 26 36 63 94 95 98 76 79 96 75 69 85 99 96 78 43 28 23 47 54 62 69 41 23
88 79 67 59 52 80 66 46 37 16 14 13 13 13 16 15 18 20 28 22 41 28 48 64 76 88 88 79 92 66 57 67 93 81 65 27 34 67 56 43 67 61 67 64 26
92 95 79 41 54 70 57 45 22 11 11 14 15 13 21 16 23 24 32 34 40 32 35 58 56 90 88 79 95 80 66 65 73 71 58 90 52 66 85 77 77 36 69 34 44
91 86 92 26 23 57 43 46 10 20 14 13 17 14 24 17 25 24 38 40 36 30 56 80 65 86 73 97 76 83 60 64 59 47 50 81 56 66 83 55 52 39 54 38 39
84 94 84 66 33 37 15 23 24 20 7 12 15 16 32 20 25 28 34 51 52 38 68 93 52 82 84 74 79 91 98 54 56 58 56 58 64 69 79 72 74 43 48 28 20
50 56 90 77 72 21 6 11 22 12 6 10 14 16 25 26 22 31 25 29 50 38 40 74 62 81 74 83 56 82 86 73 62 47 66 83 68 73 70 49 22 58 64 21 20
21 31 29 17 92 23 12 34 19 5 6 8 12 13 22 24 20 25 29 28 42 38 43 43 72 84 87 85 77 84 74 78 89 74 55 36 46 39 28 48 66 92 56 19 16
20 22 22 8 39 89 54 38 25 4 6 8 10 14 15 21 21 26 37 36 36 46 51 49 57 67 82 88 90 47 45 83 60 38 26 20 26 18 42 60 90 77 63 45 16
20 26 19 13 15 39 58 46 36 5 6 8 10 14 17 28 25 24 26 32 41 54 61 72 74 77 59 58 93 82 29 32 57 90 65 21 18 22 28 55 67 72 58 66 23
22 24 19 14 22 34 41 51 34 5 6 7 9 14 25 31 29 24 24 28 50 45 63 88 78 74 75 70 83 57 34 22 31 32 29 22 14 17 19 26 32 36 27 24 33
14 17 20 21 19 22 24 43 30 8 6 5 7 10 17 19 33 27 34 33 59 55 73 95 95 74 52 57 99 61 37 47 33 27 24 21 14 11 15 22 29 28 25 16 17
9 14 22 20 16 17 24 26 40 14 11 8 6 10 26 30 39 28 48 97 43 63 84 78 70 33 21 28 24 23 17 21 28 39 64 42 21 34 30 32 27 31 25 17 16
6 9 15 16 16 18 20 23 34 14 14 13 8 11 24 27 47 33 39 60 45 42 62 48 56 23 14 17 26 20 14 9 9 17 15 16 14 27 42 45 32 30 26 23 25
4 4 7 16 14 14 16 19 23 14 17 11 8 29 21 40 53 42 52 43 57 84 33 35 29 20 18 15 11 9 8 11 12 13 8 10 14 16 27 31 35 37 38 38 36

GFSSW_500_rhum_051.txt.gz
RH
25 24 24 22 24 28 30 30 30 30 32 36 31 30 30 25 18 18 8 10 18 24 29 31 28 16 15 21 33 97 82 97 93 96 95 100 100 74 74 69 53 88 94 94 81
29 28 27 25 28 30 32 33 34 34 34 40 32 29 30 24 17 17 9 10 21 32 36 34 33 17 16 31 65 100 75 92 98 100 97 98 94 67 63 53 41 63 86 93 87
34 31 28 31 32 34 38 38 38 40 38 42 34 30 29 22 17 14 9 13 26 35 43 40 32 18 21 43 76 94 83 89 98 97 77 85 94 60 51 55 51 67 73 78 80
38 37 37 36 38 42 42 42 43 44 41 43 33 28 26 23 22 12 9 19 33 36 32 29 27 27 31 70 73 88 96 82 87 88 87 83 78 58 59 51 56 74 74 74 76
48 47 47 45 47 49 47 50 49 48 45 43 33 27 26 21 22 11 10 24 37 40 27 37 44 70 47 80 77 44 93 100 93 86 82 83 69 48 49 50 66 78 77 68 80
61 60 57 54 58 56 57 57 52 48 48 41 33 24 25 24 16 11 12 29 38 40 34 54 63 77 82 81 90 82 70 98 88 97 82 70 56 47 51 61 82 90 87 86 98
80 79 70 66 69 65 64 59 54 49 48 41 31 21 24 24 16 10 15 29 38 39 34 57 59 70 76 87 84 80 74 83 93 81 60 53 55 53 68 67 58 60 65 70 96
87 85 87 80 74 66 64 58 53 48 48 40 26 20 21 23 14 10 20 32 34 30 23 40 46 49 71 71 70 81 88 79 70 66 60 64 70 87 90 50 36 25 30 26 32
95 94 93 89 78 72 67 60 53 49 48 36 23 19 18 18 13 10 22 29 27 30 28 33 38 41 45 64 69 92 94 78 71 64 67 86 83 88 81 32 16 14 16 16 29
96 94 95 94 93 82 78 74 57 51 49 29 20 21 18 18 11 12 20 19 24 33 39 45 38 38 36 50 60 100 100 100 94 95 93 96 92 75 43 41 20 20 28 20 19
97 97 96 100 95 96 88 79 64 57 49 23 22 22 20 16 10 13 16 16 22 30 41 46 38 33 32 42 49 97 88 84 96 88 81 66 48 56 45 47 42 32 28 40 30
96 100 96 95 95 96 93 81 72 62 43 24 22 21 18 15 10 13 15 17 17 26 39 54 72 70 57 61 63 63 71 98 98 91 85 51 31 14 38 41 37 49 37 31 22
100 100 98 94 92 95 94 76 76 73 41 25 22 20 16 13 12 13 15 18 17 21 35 72 69 82 89 85 93 100 94 100 94 67 80 80 29 11 24 22 26 22 21 19 23
100 98 97 91 94 88 88 93 84 73 36 23 16 16 16 13 13 14 16 21 16 23 42 54 59 69 82 78 99 90 74 82 88 74 63 44 36 23 19 13 58 60 72 73 36
100 99 96 91 77 87 79 81 87 61 34 26 18 16 16 14 13 17 16 22 22 26 51 48 67 65 75 91 98 73 56 71 69 53 91 82 44 22 21 14 45 72 62 62 41
100 98 98 94 83 80 80 86 81 60 46 31 21 15 14 13 12 13 18 22 28 25 36 47 56 65 80 83 84 56 53 53 68 70 72 62 42 32 50 52 45 45 50 67 39
98 100 96 97 96 79 86 64 68 62 45 36 16 15 16 12 12 13 21 22 34 30 30 38 47 51 73 74 68 66 51 49 49 63 60 80 54 50 84 67 53 52 19 47 32
89 93 99 93 91 83 77 59 63 55 52 22 16 14 15 13 13 14 20 24 33 40 42 32 47 53 74 83 74 65 49 45 40 42 47 54 38 42 47 75 51 35 21 21 24
73 93 93 77 95 95 78 65 55 54 44 9 14 14 15 13 15 13 17 29 31 41 42 52 55 70 78 100 90 71 65 71 66 48 41 68 63 46 56 83 65 34 24 16 18
48 64 72 21 58 89 87 56 52 49 45 12 9 11 14 14 14 15 17 25 25 40 30 44 68 71 81 92 77 65 63 57 65 56 50 56 61 59 73 62 39 26 63 37 18
18 34 36 21 37 70 58 52 50 23 22 11 10 7 15 15 17 17 19 25 38 35 36 36 44 73 90 88 97 97 76 62 42 59 62 58 43 36 27 25 22 50 77 64 50
13 22 17 12 51 59 53 56 52 6 5 8 9 6 10 15 17 17 20 27 43 38 39 30 33 51 73 97 92 98 81 63 31 58 41 28 22 22 22 20 17 20 35 80 72
21 18 9 7 41 46 57 60 63 6 6 6 6 6 9 14 20 20 24 30 39 42 41 33 32 35 55 76 62 64 82 84 34 22 30 31 26 20 19 16 12 10 11 20 50
17 13 9 11 25 39 46 53 65 17 15 10 7 5 8 18 20 21 24 28 28 34 39 46 44 30 53 68 96 79 87 71 38 25 22 18 16 16 14 10 9 8 11 12 19
15 19 27 25 22 23 36 38 60 59 40 20 6 7 9 12 20 25 36 31 31 30 27 31 33 41 81 63 48 55 100 97 63 31 19 16 10 20 13 12 14 14 17 20 25
12 18 28 27 25 24 27 29 38 64 58 53 21 7 10 15 25 32 54 48 41 52 64 25 49 48 69 42 25 27 52 39 24 20 12 10 6 6 10 15 24 26 27 34 35
8 13 21 26 27 24 19 22 28 36 78 59 12 14 8 20 62 50 63 62 52 64 88 69 58 49 100 81 46 21 17 22 21 11 7 8 11 10 8 11 16 26 32 41 43

GFSSW_500_rhum_057.txt.gz
RH
42 37 31 26 24 23 23 22 22 24 21 24 28 32 34 38 36 36 34 28 24 22 17 13 20 26 27 32 20 16 34 99 99 92 88 97 99 97 92 85 77 68 78 55 54
49 47 48 44 37 32 28 27 26 26 26 25 31 34 38 40 40 38 35 30 24 20 16 14 23 27 21 27 23 19 52 93 96 90 82 93 96 97 96 89 71 66 61 57 59
54 61 58 50 47 43 42 39 34 30 29 28 33 38 41 42 42 41 38 32 23 21 14 17 24 16 18 28 23 31 82 96 100 100 94 92 93 96 98 82 76 59 51 49 54
81 70 74 70 60 51 47 43 38 31 31 35 38 42 45 47 43 42 37 29 22 20 14 18 23 18 24 36 34 35 66 100 96 100 96 93 87 94 94 83 66 52 48 33 34
90 87 81 84 84 71 57 48 43 46 39 43 43 47 48 53 48 41 38 27 22 17 16 17 23 35 49 39 66 44 78 95 97 93 94 89 88 95 90 69 62 54 41 47 47
74 97 96 88 91 89 72 60 55 59 49 52 51 52 55 55 48 43 38 26 21 15 16 17 23 37 52 44 79 67 85 79 85 85 96 98 83 77 62 54 54 49 41 63 68
70 76 90 98 93 94 78 95 78 68 62 56 58 60 61 54 48 44 35 24 19 15 14 17 25 22 44 46 70 72 90 87 66 69 77 86 90 64 52 52 64 61 74 54 79
68 72 75 84 89 91 96 86 94 77 66 67 66 64 62 54 48 45 32 23 19 14 14 18 26 23 26 46 50 67 68 88 98 100 100 95 82 58 71 65 70 70 68 48 98
75 75 71 70 80 85 95 86 98 85 73 70 71 62 59 54 48 47 31 23 17 14 15 17 25 26 26 36 48 63 61 78 81 85 86 77 74 82 64 52 36 50 24 53 38
75 83 85 69 70 83 91 90 87 97 93 83 78 63 57 54 50 46 29 24 15 14 16 18 22 27 28 34 41 52 60 74 97 84 91 81 69 79 55 50 35 23 21 49 31
79 81 88 81 70 77 96 87 97 94 93 98 85 67 66 58 55 42 27 22 15 14 16 17 22 33 27 38 37 48 58 84 98 90 77 90 94 95 62 75 62 39 28 26 24
87 94 90 88 78 74 84 96 93 88 86 95 92 82 83 64 57 36 25 20 14 14 16 16 33 45 34 32 36 49 52 64 81 91 99 98 99 99 93 89 69 45 40 42 24
67 80 91 96 86 80 84 91 96 84 77 96 93 92 94 72 61 31 26 20 14 15 16 14 32 41 60 67 54 40 44 62 72 96 100 94 95 63 49 62 58 57 42 30 24
33 58 82 86 95 95 88 80 94 88 74 85 95 86 95 71 56 30 23 18 14 15 18 16 22 42 54 64 66 63 58 64 66 90 88 85 85 40 46 52 59 45 39 35 33
21 33 50 77 92 96 92 89 86 91 83 78 84 94 75 66 44 28 24 18 16 16 20 21 17 37 47 60 55 59 64 60 65 65 73 81 63 60 27 26 46 73 83 80 54
18 25 32 61 95 96 95 94 87 82 76 71 76 90 86 63 42 25 22 18 16 13 18 22 18 31 41 52 61 56 65 57 55 60 62 65 64 57 33 33 32 76 67 92 98
11 23 24 54 80 91 96 96 82 68 56 67 83 81 75 66 37 24 20 17 15 15 20 24 22 26 41 50 57 58 61 56 55 53 59 62 55 58 61 41 56 56 45 69 62
7 13 23 37 58 85 97 91 78 64 75 60 88 95 68 54 33 24 19 15 13 13 19 23 24 26 47 58 57 56 59 64 58 51 52 46 41 57 54 48 51 69 62 56 53
5 9 15 30 57 57 90 78 58 71 75 65 69 84 91 38 32 29 20 16 17 16 20 27 28 24 38 60 67 59 67 71 67 59 52 56 56 46 41 47 50 48 60 59 47
4 6 10 22 43 31 57 61 60 73 79 62 73 87 60 47 35 28 20 18 17 18 22 29 31 28 23 48 55 55 67 71 73 62 48 47 45 55 54 54 70 69 62 70 76
4 5 6 14 30 33 33 32 57 68 79 78 81 83 82 53 39 34 22 21 23 21 19 28 26 34 28 39 59 74 76 73 67 57 58 51 46 52 70 58 51 51 64 61 36
5 4 5 11 18 39 20 26 52 70 72 71 86 93 54 61 52 26 20 25 29 26 19 29 31 26 32 54 80 81 69 68 70 66 55 50 48 53 50 60 48 26 22 20 18
12 4 5 10 12 20 17 28 35 70 76 89 97 78 42 40 36 29 25 30 27 28 18 27 26 28 31 27 40 56 69 79 89 85 58 44 51 37 49 46 55 41 26 20 18
26 6 6 11 9 14 18 19 32 55 80 92 98 76 40 52 30 24 24 22 29 28 21 34 31 23 27 37 42 40 49 64 78 62 51 36 42 36 29 26 31 24 21 28 25
23 21 4 6 8 8 12 20 37 44 75 88 87 88 48 30 41 22 17 21 39 28 23 35 30 31 31 35 42 43 40 39 40 38 30 30 43 50 34 31 23 11 8 9 9
24 21 7 5 7 9 10 11 26 41 61 85 88 99 30 13 23 51 26 34 38 32 30 26 48 38 35 35 35 39 33 40 43 47 36 29 25 69 38 18 12 8 10 13 14
24 21 14 4 8 10 8 13 18 39 53 81 85 100 64 10 55 38 43 34 39 36 30 25 38 40 38 50 56 26 26 32 48 43 36 25 45 54 19 13 8 9 11 15 18

GFSSW_500_rhum_060.txt.gz
RH
49 46 37 36 40 38 34 30 28 27 24 24 24 27 25 23 28 33 33 38 39 37 31 24 18 12 11 11 18 24 26 91 100 98 100 79 77 97 99 99 91 77 75 75 64
51 50 48 51 46 48 45 40 40 36 32 30 27 32 27 29 32 36 36 40 41 39 30 24 15 12 9 12 22 27 44 92 98 95 85 86 83 97 97 96 86 61 60 56 72
54 52 44 49 64 54 59 52 40 42 42 39 34 33 31 35 36 41 41 43 42 40 29 22 14 13 10 17 25 28 67 92 91 93 90 89 94 97 98 96 75 67 52 59 60
61 58 54 55 60 68 58 66 60 47 43 45 38 34 33 40 42 44 47 47 46 41 27 19 13 13 15 23 34 27 44 99 100 92 83 87 89 97 97 84 70 65 57 48 46
66 66 61 54 58 69 78 75 74 80 53 47 44 44 45 47 47 49 52 49 48 41 25 18 13 14 16 34 43 36 43 66 78 97 82 74 91 99 82 64 58 49 39 38 36
72 67 64 65 61 64 75 82 87 89 76 57 54 61 50 56 54 54 54 50 49 37 22 16 12 15 16 32 50 43 67 84 61 73 92 99 92 97 74 60 52 39 36 34 47
83 84 72 67 64 63 66 72 92 98 90 82 90 72 74 63 60 60 57 53 49 33 23 15 12 15 18 28 41 61 66 77 86 72 66 76 80 84 67 57 53 54 45 52 89
74 87 86 76 67 63 64 64 71 87 97 91 100 87 78 71 62 58 56 52 48 32 21 15 13 17 24 23 40 49 61 85 77 71 71 84 99 63 59 73 62 65 60 65 94
78 81 86 78 67 67 63 65 63 74 89 86 91 89 82 76 65 57 56 54 46 29 21 16 13 18 23 21 36 45 91 89 77 100 86 73 97 69 66 54 57 53 27 44 89
69 73 74 83 81 74 68 65 59 68 75 89 93 91 85 77 71 59 57 55 44 29 19 15 14 19 25 24 42 46 56 96 100 90 81 76 66 74 68 52 38 29 26 53 31
40 63 70 68 76 85 73 76 68 61 68 88 87 88 94 86 77 64 61 58 40 26 19 15 14 26 31 24 33 38 47 77 84 69 88 85 87 75 67 62 44 32 29 39 26
24 32 49 65 68 75 84 86 74 65 65 84 87 92 96 95 78 71 65 58 36 25 18 15 15 30 40 35 32 38 46 56 69 79 97 100 99 85 93 73 55 54 53 30 27
18 21 27 36 55 79 80 81 84 74 65 87 90 98 89 90 84 83 72 59 32 25 19 15 15 28 50 59 55 37 68 53 68 64 85 79 99 92 88 84 84 84 44 38 24
12 17 19 23 33 65 86 81 89 81 79 74 94 84 98 89 78 87 82 61 30 23 18 15 15 22 48 53 61 58 53 50 61 73 100 85 100 72 74 70 70 54 33 32 30
8 10 16 18 22 47 75 90 87 91 72 68 76 93 88 91 86 94 71 51 30 22 19 18 16 18 41 50 53 63 55 66 67 75 79 80 88 100 50 34 48 66 41 34 29
5 7 9 14 19 28 56 82 89 92 73 60 61 92 92 90 88 82 58 40 29 21 19 14 18 17 27 40 49 57 68 67 65 75 74 72 79 100 90 60 31 42 74 78 66
3 5 6 10 16 24 37 62 82 75 62 63 62 86 95 83 97 82 62 41 27 21 17 17 19 19 19 36 49 51 65 99 77 61 100 72 70 87 64 44 38 26 57 73 59
2 4 5 7 12 20 32 52 50 50 74 72 57 75 95 94 94 100 74 37 22 21 19 17 19 22 21 36 51 57 60 72 85 72 86 58 52 97 63 56 56 56 58 62 68
3 3 4 6 9 13 27 27 19 36 70 78 70 58 91 97 86 88 61 25 21 22 18 19 25 22 22 29 52 66 60 56 68 64 59 53 57 64 46 42 50 48 68 67 83
7 4 4 5 7 10 17 14 18 25 61 79 84 74 64 97 60 49 34 26 21 20 21 22 27 27 23 22 40 66 68 68 70 71 66 66 61 90 44 46 50 50 57 58 85
27 10 5 5 7 9 8 8 14 21 55 77 92 94 53 64 97 43 30 28 24 26 23 18 23 30 28 24 29 53 70 81 73 67 62 56 68 72 52 58 46 54 71 78 86
31 15 8 6 10 6 5 7 11 19 41 75 87 98 81 52 88 76 31 29 28 29 24 20 27 30 34 31 28 41 59 75 83 73 66 60 46 58 70 39 57 52 39 33 47
28 20 21 12 7 6 4 5 9 18 35 69 79 97 92 86 83 90 37 32 33 34 27 20 22 32 34 30 25 25 54 79 87 82 57 62 54 52 51 58 53 43 40 38 27
50 36 47 20 6 5 5 5 6 13 31 54 75 97 98 90 89 67 69 34 30 39 41 37 33 33 29 37 42 40 51 69 73 70 62 50 53 49 59 39 36 36 34 29 26
79 32 22 7 6 5 6 5 5 10 26 37 74 85 100 95 98 52 44 57 42 40 42 34 26 22 25 36 38 33 31 33 42 38 44 35 37 46 67 45 34 29 26 22 12
89 54 26 17 13 4 5 5 5 7 23 32 63 78 89 97 98 76 42 45 57 44 42 39 31 23 25 28 33 30 31 35 33 32 28 32 22 41 40 57 49 44 19 14 8
82 76 41 26 22 9 5 6 4 6 16 34 40 80 86 100 100 73 99 89 47 34 37 45 35 26 24 28 32 16 26 30 35 34 40 51 48 35 26 36 57 27 14 9 8

GFSSW_500_rhum_063.txt.gz
RH
49 51 53 46 43 41 41 39 35 35 36 34 31 27 25 26 27 28 27 31 30 41 43 42 38 28 16 9 7 12 26 82 92 89 90 98 73 68 81 85 76 88 75 89 76
56 57 59 57 56 53 44 44 51 45 43 41 38 39 34 32 30 31 31 33 34 46 49 44 36 24 12 8 8 13 85 92 82 92 88 100 86 70 88 80 71 72 76 62 73
52 52 62 61 58 52 46 46 55 56 53 50 44 44 42 37 37 41 36 39 41 52 53 45 32 19 10 9 10 32 57 97 90 99 93 95 98 94 64 92 100 84 64 68 77
45 43 53 55 56 57 51 44 50 64 62 57 56 49 48 43 42 42 42 45 48 56 53 45 28 16 11 12 18 16 30 81 100 76 69 71 68 70 75 76 77 62 60 56 57
52 54 62 69 70 59 64 51 50 61 73 71 74 84 57 51 53 51 54 50 54 60 54 43 24 14 12 12 16 17 21 98 78 76 69 52 54 65 46 50 48 42 44 48 44
68 67 66 63 61 70 64 62 57 58 67 79 82 83 72 61 64 64 62 57 62 61 54 39 23 14 12 14 14 55 27 47 80 26 70 68 91 66 51 45 43 35 32 36 40
69 70 66 68 73 64 66 66 63 59 58 74 81 76 81 78 85 80 73 63 67 61 53 36 21 13 11 15 17 30 51 65 86 96 38 55 96 80 73 52 43 40 52 52 67
61 71 69 69 69 70 71 69 68 66 56 69 70 70 73 94 97 82 76 68 65 61 52 34 21 13 12 18 16 34 45 85 92 100 55 34 52 94 61 43 40 48 54 54 84
38 50 65 71 72 76 77 75 76 72 63 66 62 62 73 86 97 86 83 73 64 61 51 32 20 13 14 21 20 68 92 96 84 80 57 66 96 96 60 40 59 59 34 47 74
31 33 34 47 67 72 75 84 82 74 72 67 66 62 60 83 95 92 88 79 65 63 49 31 20 13 18 25 93 99 88 94 89 90 63 89 53 84 71 40 61 55 30 53 39
31 27 26 30 36 50 67 72 81 80 72 80 64 73 67 80 92 94 93 87 69 62 47 29 19 14 91 98 22 41 95 91 99 96 56 97 100 100 88 64 62 53 24 47 25
14 24 26 23 26 34 47 67 68 69 57 77 79 71 70 80 82 92 91 84 73 65 45 28 18 15 26 37 36 34 100 100 100 59 48 100 86 96 97 61 65 48 32 22 18
10 9 13 22 20 24 34 57 55 65 51 70 80 72 84 78 87 92 96 95 78 66 46 27 28 15 22 35 48 34 99 95 100 99 56 67 74 100 76 78 62 58 73 65 36
5 7 8 9 16 20 23 40 48 60 62 51 80 69 76 84 74 86 94 86 81 69 44 27 19 16 20 34 44 100 77 56 54 76 100 98 97 96 99 49 36 37 44 33 26
2 3 5 7 8 14 19 24 42 62 66 53 59 67 71 74 92 88 100 91 79 69 46 29 20 16 16 32 36 80 86 44 47 100 100 100 99 94 65 51 73 30 40 29 28
2 2 2 4 6 8 12 20 28 58 49 51 50 61 71 74 97 92 93 89 95 66 38 27 20 17 18 22 35 48 52 48 54 98 87 99 92 94 100 98 99 86 21 33 48
2 2 2 2 4 6 8 13 26 27 37 40 56 65 60 67 88 94 95 90 88 56 39 27 20 18 17 17 31 41 57 91 98 98 68 96 62 98 92 88 44 41 26 30 44
10 3 2 2 4 5 7 9 15 20 25 33 46 66 65 65 73 95 96 96 88 52 35 28 24 16 20 17 45 38 68 94 97 93 98 59 57 96 85 51 53 38 30 31 43
40 26 3 2 4 6 7 8 9 16 21 31 47 66 66 66 70 96 97 99 71 46 32 26 29 26 19 19 25 79 49 96 99 70 61 80 93 73 52 49 46 57 55 54 61
63 45 11 3 6 7 8 5 6 9 18 22 34 61 78 72 69 92 96 100 96 56 30 32 96 42 25 20 21 39 75 68 70 91 91 98 93 98 86 44 37 42 49 52 70
98 67 25 17 7 9 8 2 5 7 11 19 29 52 80 89 85 71 96 99 98 44 28 36 58 75 22 18 22 23 46 66 93 98 99 100 97 96 63 56 47 41 42 43 53
99 52 64 35 23 6 5 3 4 7 9 13 24 49 72 87 94 69 97 90 91 32 26 30 32 100 25 28 31 100 52 98 100 93 82 70 60 98 69 66 50 50 47 50 66
53 66 96 72 26 7 3 4 6 7 7 9 18 41 71 84 97 58 97 69 40 39 33 36 32 55 93 28 24 27 70 100 97 96 95 73 66 98 65 58 49 56 47 45 44
85 71 95 94 36 16 3 4 6 6 7 9 15 33 62 79 98 67 79 90 49 41 38 45 37 32 49 66 43 27 30 83 100 69 52 72 100 100 98 93 94 95 38 40 38
98 67 40 35 36 14 12 3 5 7 7 8 12 26 51 70 97 99 45 95 91 48 45 44 35 38 38 100 100 98 73 57 87 97 87 59 100 98 100 90 99 88 53 22 23
73 66 43 45 76 38 25 6 4 6 9 6 9 23 39 66 66 98 100 98 97 80 47 47 42 41 32 45 100 98 92 100 97 98 46 60 87 96 95 95 44 37 46 54 33
80 79 60 72 71 52 29 24 4 5 8 9 14 25 36 62 66 99 99 99 87 92 63 52 48 45 32 34 62 50 17 34 44 76 55 31 44 99 99 94 43 26 28 37 57

GFSSW_500_rhum_066.txt.gz
RH
38 39 42 44 48 53 46 41 46 49 48 45 43 39 37 36 32 27 28 29 29 31 38 42 48 45 39 22 14 6 15 84 97 77 94 56 59 47 27 52 66 95 92 57 75
33 39 47 54 57 56 56 54 56 48 44 47 51 51 44 41 38 35 32 34 40 38 44 50 52 46 35 20 11 6 12 98 99 91 66 53 73 96 67 58 69 83 96 83 62
43 34 40 45 46 50 49 58 56 51 45 45 50 59 54 47 45 41 39 38 41 46 52 54 54 47 28 16 14 15 21 97 89 84 43 40 89 99 67 58 86 88 88 72 65
65 57 50 42 41 42 41 47 53 55 51 46 52 60 65 62 64 62 46 44 45 54 59 61 56 44 23 12 38 49 29 18 39 89 46 55 54 70 82 90 70 65 61 57 52
58 65 64 61 58 51 49 57 58 54 56 52 47 56 68 70 80 72 55 52 56 59 62 64 56 40 19 11 52 73 42 18 63 42 18 37 55 49 87 76 48 36 42 34 36
46 48 50 59 60 61 57 59 63 67 61 60 52 46 54 72 82 73 63 61 75 68 67 65 56 34 15 10 12 21 49 16 22 75 32 18 52 42 76 98 40 52 38 29 23
42 42 42 44 52 57 64 66 69 68 68 69 58 48 41 82 70 81 78 69 86 77 70 64 55 30 16 11 13 12 8 21 75 96 94 77 47 48 90 81 59 50 45 40 37
40 38 37 38 41 45 61 66 64 63 66 71 60 53 40 72 63 76 85 96 93 81 72 64 74 27 15 12 14 14 19 55 99 99 83 71 84 28 73 97 53 52 49 50 44
39 38 38 37 40 42 43 50 66 66 62 66 66 57 50 58 60 60 81 93 86 90 76 64 58 26 15 12 19 64 70 95 91 88 79 92 62 31 75 83 83 52 56 55 35
29 30 32 37 35 37 48 45 53 62 66 62 68 59 57 60 60 66 82 83 86 91 81 66 65 28 14 24 37 100 99 94 81 93 77 94 50 87 92 60 55 57 60 37 33
18 20 21 23 31 34 31 38 52 48 45 68 65 69 56 66 67 65 86 97 86 83 86 66 54 27 14 37 96 77 71 86 99 92 73 50 75 74 76 96 61 59 56 32 38
14 14 12 16 18 22 31 27 30 37 36 50 66 51 81 71 64 73 64 96 90 97 90 70 68 24 13 51 36 33 27 68 100 84 49 43 82 96 70 57 68 57 55 26 19
3 4 7 11 13 14 16 25 23 27 30 30 59 48 80 53 65 66 67 96 89 99 89 78 56 25 14 25 34 34 40 90 72 89 83 55 71 99 97 94 56 40 54 58 33
2 2 2 3 6 9 12 10 19 24 24 24 50 43 68 60 42 78 72 92 93 94 98 84 44 30 16 14 28 35 45 72 99 95 97 86 84 98 91 69 46 26 30 21 22
2 2 2 2 2 3 6 9 10 14 22 25 28 34 62 45 61 65 90 93 95 92 92 66 66 26 16 15 26 79 31 87 37 44 86 85 94 96 76 88 78 55 20 26 22
4 2 2 2 2 2 3 5 7 9 16 23 24 31 42 53 67 77 71 86 100 97 91 80 69 30 18 16 17 40 29 41 39 48 56 93 95 97 90 86 100 80 34 18 23
32 17 4 2 2 3 3 4 11 9 12 16 22 27 46 48 68 76 69 76 88 91 79 80 90 33 20 16 18 25 28 37 47 59 59 97 92 98 93 92 96 94 39 25 24
56 37 23 8 3 4 3 5 8 5 9 12 19 21 33 56 65 69 73 70 94 95 98 93 85 33 21 15 19 31 30 37 67 96 90 93 59 100 70 73 49 55 49 38 26
70 60 29 27 14 5 5 6 3 2 6 10 13 20 25 46 62 68 66 63 92 98 97 95 52 48 29 20 18 93 32 50 92 89 99 84 75 67 50 68 46 39 41 52 53
42 72 75 56 42 34 8 4 2 3 6 38 19 18 32 35 58 70 70 69 80 97 98 96 86 59 44 21 19 36 55 56 64 97 96 72 68 100 90 92 58 40 32 36 45
44 39 50 95 77 48 17 3 2 3 12 33 14 24 37 70 52 68 71 78 94 97 97 100 99 85 100 28 20 18 26 41 68 100 77 53 97 91 99 84 52 41 37 36 37
59 42 29 66 91 60 19 10 2 3 6 21 13 14 50 55 100 66 68 65 74 88 92 97 100 100 99 57 33 27 24 37 45 78 63 85 91 84 96 95 72 36 35 39 36
82 62 53 54 36 20 42 17 9 4 5 22 13 13 49 55 74 83 74 95 98 93 93 93 91 100 100 100 46 23 71 34 38 62 70 79 78 73 78 89 72 60 56 44 43
100 86 66 58 28 18 23 42 23 7 3 14 18 72 100 40 56 99 97 92 93 96 99 96 100 100 84 70 50 47 31 96 89 67 69 47 47 82 92 84 83 62 67 61 36
100 78 58 46 24 18 20 43 39 20 4 4 12 26 98 65 99 90 100 99 100 99 96 98 97 100 95 94 81 50 29 29 36 84 71 66 48 58 95 98 90 90 75 69 90
100 87 68 64 57 55 39 30 51 30 9 5 6 44 99 96 94 94 100 64 94 100 96 97 99 100 99 72 98 99 97 59 38 47 80 97 86 88 96 96 96 100 70 69 64
100 100 94 85 68 58 31 24 35 67 25 5 5 10 97 92 97 100 91 74 85 91 96 100 86 59 56 63 82 94 95 93 100 98 98 89 78 72 78 86 97 78 92 39 29

GFSSW_500_rhum_072.txt.gz
RH
64 64 63 59 54 51 46 38 37 37 39 48 50 42 38 40 33 29 28 34 44 46 45 43 37 36 39 47 48 44 18 13 9 10 54 73 93 56 40 43 30 52 63 79 61
76 69 70 66 62 60 49 41 36 36 42 49 47 43 38 45 38 32 35 39 42 52 56 58 43 40 43 52 53 43 18 13 7 12 39 46 64 46 54 22 23 48 68 72 76
75 83 73 66 66 63 63 56 46 36 35 40 37 35 35 40 45 42 42 41 46 57 64 66 49 44 53 56 56 34 15 11 8 26 24 43 32 22 33 23 22 38 53 64 66
81 84 74 69 67 62 60 62 61 54 44 40 38 39 38 33 42 45 45 40 43 62 69 66 51 52 66 63 57 36 14 9 7 10 19 38 23 17 18 28 27 31 57 77 48
91 84 80 73 70 69 60 58 61 62 62 60 51 49 51 46 61 30 46 44 44 58 70 68 58 60 74 65 57 31 15 10 8 6 13 19 18 14 23 20 31 39 79 68 42
95 94 88 76 74 72 69 62 54 53 48 54 54 48 45 54 57 49 49 55 46 54 61 68 67 66 72 66 58 48 13 12 9 9 51 62 39 48 52 62 45 61 82 53 32
95 95 81 74 68 63 68 64 56 50 47 44 40 38 40 64 55 56 60 64 54 51 63 64 68 64 71 62 62 33 12 23 19 53 84 63 56 63 68 93 87 98 58 37 30
91 60 52 49 48 47 48 51 54 46 44 40 38 32 37 64 56 53 44 63 54 56 64 54 59 66 71 64 59 31 14 41 42 66 89 74 58 67 60 60 89 87 84 28 34
96 96 91 85 60 48 46 45 43 41 40 34 31 23 34 54 52 53 44 65 57 53 64 54 52 68 70 65 62 19 18 28 62 53 54 68 74 97 64 40 92 70 82 48 32
56 41 32 43 37 38 37 37 41 42 38 35 29 26 32 44 51 54 47 58 59 57 53 58 60 64 71 69 47 24 17 14 31 69 86 75 94 76 50 78 100 66 63 59 35
93 90 69 40 18 18 19 21 26 32 34 34 28 27 26 31 42 49 50 51 52 53 58 59 58 58 88 74 57 31 16 15 22 56 100 99 82 56 32 70 91 78 51 61 37
13 29 64 71 43 12 10 10 14 24 26 28 29 24 33 32 22 41 50 50 54 64 61 48 54 91 91 79 66 49 15 19 18 40 99 100 76 56 63 66 94 69 69 48 29
11 7 6 10 28 59 12 6 23 30 18 22 22 21 24 29 20 31 40 58 53 63 63 55 70 84 85 79 71 41 14 26 15 64 82 78 82 61 60 63 91 46 54 42 33
6 6 6 6 5 5 4 5 5 5 12 14 13 16 17 20 17 24 32 57 57 46 72 42 78 68 74 81 73 58 20 15 28 35 53 78 49 53 64 83 67 38 25 30 24
5 5 5 6 5 3 3 3 3 3 3 8 10 8 12 14 16 21 25 34 41 56 61 35 72 72 80 94 94 67 21 19 34 33 40 61 42 48 80 67 50 47 19 23 24
3 3 3 3 3 3 4 3 2 2 3 5 5 6 5 8 14 18 24 24 35 56 43 34 80 85 96 97 95 70 28 18 41 44 31 52 46 27 62 69 61 34 24 28 21
2 2 2 2 5 3 3 3 4 3 4 3 3 3 3 4 9 14 18 25 25 37 33 38 61 68 88 98 93 56 18 26 19 28 26 58 26 50 74 70 55 29 24 26 32
2 2 3 2 12 15 16 12 4 3 2 2 3 3 2 3 5 10 13 20 24 34 41 47 58 74 91 87 76 61 20 16 16 27 35 50 26 65 63 46 52 40 25 23 24
4 5 9 34 64 47 52 17 2 6 7 4 11 46 4 6 8 19 14 14 22 34 41 54 54 78 93 100 96 84 47 31 28 22 31 50 48 56 62 40 58 56 52 37 28
36 74 72 100 100 91 69 12 12 18 22 13 8 60 33 17 10 23 17 15 19 30 49 67 70 87 99 100 94 94 67 55 29 42 26 49 78 70 50 36 50 48 43 42 28
100 100 86 100 100 85 34 18 23 37 45 32 16 66 70 54 68 58 26 22 19 36 67 73 73 80 100 86 92 98 70 93 50 52 45 63 84 73 54 58 72 75 64 51 33
100 96 75 100 96 57 34 42 42 57 82 50 25 10 100 100 100 89 64 27 39 75 66 69 84 83 81 89 99 98 52 63 38 30 82 100 81 86 66 51 65 74 85 58 57
100 98 83 99 70 54 48 50 43 37 72 79 28 6 99 100 100 100 70 47 85 48 66 87 77 80 94 95 98 88 56 100 62 46 92 100 57 76 86 69 66 73 86 66 46
100 100 79 65 58 70 66 54 36 35 42 70 45 10 25 93 98 96 100 100 100 84 68 80 70 72 75 79 93 97 72 91 91 48 46 58 69 93 84 56 60 83 65 71 67
99 82 64 44 46 62 64 49 37 35 40 51 52 31 6 13 46 48 100 100 100 100 93 68 55 64 75 81 99 98 81 92 100 90 58 29 63 80 69 89 94 86 82 67 71
96 75 64 59 48 57 57 37 34 47 54 44 27 46 25 32 50 39 81 92 100 100 77 73 46 54 63 84 98 96 94 80 89 98 100 52 48 68 50 58 74 84 76 78 100
94 88 80 69 67 51 32 40 48 56 62 65 40 46 28 45 100 100 85 83 83 80 100 91 68 46 42 98 100 79 89 90 80 99 95 76 65 96 96 94 93 77 81 60 74

GFSSW_500_rhum_075.txt.gz
RH
65 64 66 57 56 63 56 53 51 48 46 38 34 30 30 39 43 46 42 34 32 28 31 39 47 56 51 41 42 45 51 39 18 16 20 12 12 24 22 18 29 22 41 65 78
68 70 74 68 70 71 67 63 59 53 47 39 36 36 36 43 45 47 43 36 35 36 36 33 49 63 57 45 52 55 54 30 17 15 14 10 8 9 14 13 12 28 49 52 52
72 73 72 77 74 76 74 70 66 58 51 40 36 32 33 36 45 45 44 43 40 38 38 35 44 61 60 48 56 61 57 32 16 13 13 8 8 8 10 9 11 15 18 43 67
87 81 80 83 80 82 81 69 64 60 58 50 40 35 35 35 43 44 40 40 43 41 42 43 48 63 60 52 60 63 57 32 16 13 12 7 7 9 12 17 12 15 31 40 65
92 89 87 84 89 89 87 76 65 59 55 54 49 42 42 43 47 40 46 46 46 48 47 49 62 62 62 60 64 63 56 44 14 11 9 6 9 13 29 28 33 55 67 67 74
92 96 96 96 96 96 89 86 74 63 60 52 49 48 48 54 58 51 48 52 56 54 52 52 67 55 50 72 69 68 60 40 13 14 11 9 17 26 38 40 53 71 81 69 40
89 93 94 93 99 94 96 95 83 74 61 58 50 44 40 67 53 51 48 56 60 64 65 54 47 47 50 75 74 66 59 26 16 20 28 16 30 32 31 48 60 67 69 74 40
89 91 96 90 96 97 97 96 95 80 67 62 59 46 40 53 44 49 47 58 61 64 67 59 48 40 50 70 75 69 61 23 20 30 41 36 53 44 52 32 49 65 49 72 50
94 88 94 93 89 99 95 89 81 52 53 53 56 51 47 48 45 41 47 61 58 59 65 58 54 48 47 57 72 71 63 29 19 29 48 48 48 64 51 31 54 49 58 67 60
87 67 74 78 100 96 97 95 93 81 64 50 44 43 41 36 37 38 37 45 53 60 63 59 52 55 48 62 76 69 61 30 20 40 48 61 50 73 54 66 66 49 56 59 60
95 97 95 76 22 64 52 40 45 55 67 53 40 38 37 35 33 30 34 42 42 50 59 61 48 54 70 91 87 77 62 48 23 26 24 71 48 61 47 58 63 68 44 54 52
100 92 92 90 94 83 86 79 52 24 33 34 38 40 34 36 30 34 30 31 37 49 68 58 45 82 78 86 87 81 75 60 27 21 20 40 36 58 45 46 66 68 48 54 60
62 58 66 62 34 17 23 25 72 78 61 45 28 28 25 25 24 28 27 29 32 35 45 52 76 74 73 86 80 78 75 68 33 30 25 26 33 63 44 41 56 75 52 44 31
16 52 48 26 14 10 25 17 22 16 37 50 39 32 27 19 22 22 22 26 26 26 40 33 78 74 71 72 69 70 76 75 38 17 26 31 24 40 37 55 62 83 39 26 23
8 6 6 6 12 5 6 6 6 6 7 14 22 35 27 15 14 17 16 18 21 25 30 29 68 73 74 84 77 91 93 95 64 25 17 15 24 41 38 58 51 38 22 24 25
7 7 6 8 4 4 4 3 5 5 6 8 8 8 8 9 11 8 10 14 16 21 24 22 47 57 74 100 79 100 92 99 79 27 16 20 29 30 38 53 52 40 25 20 18
9 8 7 6 4 4 3 3 3 4 7 6 6 5 4 4 4 5 6 9 13 15 17 20 25 46 69 79 87 83 83 86 74 33 11 31 24 43 48 44 60 44 35 33 29
9 8 7 6 4 3 3 2 3 5 4 3 4 4 4 4 3 3 4 6 9 14 16 23 21 40 54 61 91 80 79 88 83 40 17 22 17 47 49 48 55 53 27 27 28
6 6 7 4 3 2 3 2 3 3 2 3 5 4 4 5 5 3 3 3 7 13 17 23 22 47 62 91 98 91 71 94 86 47 17 18 16 49 34 39 47 40 29 27 28
4 3 3 3 3 5 5 2 2 2 3 4 14 20 14 7 4 5 4 3 4 12 23 38 33 51 67 88 95 100 100 96 87 47 18 13 15 22 36 46 47 41 34 34 30
4 4 3 4 24 37 5 4 7 10 18 29 35 32 22 29 14 7 7 7 10 19 54 52 48 54 86 82 93 97 83 88 91 75 39 20 24 20 42 54 56 41 44 55 57
7 7 5 25 73 48 26 41 44 60 86 64 52 42 28 14 12 34 94 18 23 19 18 30 52 60 86 90 99 98 96 90 98 81 45 21 31 30 49 66 53 37 69 68 69
72 46 74 61 82 70 89 56 69 88 79 66 57 59 38 19 25 38 62 78 39 28 22 72 47 60 86 92 85 94 96 100 100 96 44 34 39 92 89 69 77 54 41 46 68
99 68 98 82 75 94 84 70 82 91 71 63 82 78 38 17 37 82 72 100 100 46 39 75 45 43 45 66 98 96 98 100 99 89 52 32 45 100 81 83 70 72 71 93 84
94 78 100 54 60 88 76 76 82 77 69 78 46 69 48 17 44 78 100 100 99 78 100 100 61 45 58 93 99 94 97 98 99 85 58 53 32 86 97 70 83 58 69 67 80
98 50 81 70 57 87 81 70 76 87 91 73 39 71 64 33 18 92 94 100 98 100 100 85 83 87 71 95 99 96 86 86 90 90 68 45 28 34 39 57 93 59 63 99 100
99 100 78 83 59 58 51 62 65 72 88 100 70 65 44 42 13 48 70 100 99 100 100 94 71 89 65 94 100 86 62 78 80 95 76 48 46 32 34 39 82 93 62 73 92

GFSSW_500_rhum_078.txt.gz
RH
38 40 43 50 53 54 61 61 56 50 45 45 44 44 40 38 30 26 28 33 38 38 34 28 32 33 34 48 50 46 47 57 57 49 24 14 12 14 10 13 11 10 17 23 31
42 48 53 56 63 60 60 68 62 58 58 50 52 49 44 39 35 33 34 37 43 42 34 32 35 35 36 52 48 46 47 62 59 49 24 15 12 8 9 14 9 14 24 32 27
48 49 52 57 64 66 64 67 73 65 64 59 57 55 47 39 38 40 38 37 40 41 42 41 43 38 42 46 49 42 52 65 63 49 30 16 12 7 9 14 9 10 13 14 17
51 49 56 60 71 67 68 64 75 72 66 64 60 58 52 41 39 44 41 39 37 40 46 45 43 41 46 45 47 40 63 70 62 48 40 15 12 5 8 14 9 10 18 28 48
58 56 55 68 71 73 79 72 74 78 70 66 63 59 54 48 44 38 45 45 45 46 44 45 48 48 48 38 49 47 66 68 62 56 34 14 14 6 12 13 25 44 64 64 59
60 68 70 64 66 72 84 93 85 88 76 69 69 59 54 54 62 48 48 46 46 50 54 55 57 48 49 49 44 52 59 69 64 55 32 15 16 10 19 21 35 70 68 50 53
69 67 70 73 72 64 89 91 84 83 96 77 70 64 52 70 66 63 62 60 56 53 56 62 60 57 55 50 46 54 59 67 66 56 28 18 24 24 32 40 35 60 78 62 58
81 82 83 80 89 96 94 88 84 72 85 93 75 64 54 81 58 57 54 62 60 55 57 56 58 61 62 54 46 50 61 70 67 55 31 21 32 32 33 47 39 39 70 51 68
100 98 96 96 97 100 96 96 89 84 69 95 87 69 71 76 70 53 49 51 50 58 60 52 54 58 61 58 52 55 74 77 70 58 38 22 25 69 50 47 36 37 57 46 43
91 97 96 95 80 86 93 94 95 90 84 86 82 95 85 57 80 69 54 50 53 52 59 59 56 52 64 60 60 76 83 63 69 56 40 25 20 32 43 53 36 54 57 48 42
93 93 93 95 96 73 54 91 98 92 85 86 70 63 61 47 45 60 46 42 43 42 48 65 50 49 67 78 72 73 68 50 69 50 42 30 20 25 33 46 52 54 50 45 50
99 95 93 96 100 96 97 90 55 88 66 72 79 82 96 94 73 45 40 37 35 41 49 40 25 69 64 78 74 81 74 67 78 69 53 40 25 20 41 34 54 65 57 43 56
91 98 99 99 100 99 100 99 94 87 73 54 35 50 27 36 51 29 36 36 37 35 35 34 43 73 62 75 76 85 73 79 92 77 66 63 34 16 34 27 54 64 57 51 44
64 89 84 84 88 87 82 62 56 52 38 34 44 67 64 64 49 22 24 28 29 31 33 29 32 48 48 60 80 75 78 94 100 93 72 64 45 15 26 36 48 65 61 44 32
49 61 32 42 49 54 73 43 34 30 20 28 31 33 35 49 51 32 19 20 24 24 26 24 32 46 43 65 86 90 78 100 98 88 75 70 53 16 21 51 58 60 41 29 29
22 46 34 50 51 18 14 8 11 40 35 21 19 11 15 12 19 41 26 15 18 20 20 21 25 30 35 86 78 100 83 80 78 80 59 65 65 12 21 51 44 36 29 20 22
51 28 28 16 7 7 11 10 18 38 16 10 9 8 8 8 8 6 8 16 15 11 16 16 17 24 28 49 55 77 84 66 61 67 47 69 67 14 22 36 45 46 29 22 23
19 19 26 30 35 49 8 8 10 10 7 5 5 5 5 6 6 6 5 5 5 6 10 10 13 16 20 28 54 81 83 67 68 66 81 86 66 13 29 21 46 51 32 25 26
13 17 19 14 10 9 8 9 13 13 9 6 3 3 4 4 4 4 4 5 4 4 5 6 8 13 17 34 75 74 63 76 79 78 79 78 67 16 25 26 39 53 46 26 29
9 10 13 10 9 7 7 9 12 12 8 4 2 4 6 4 4 4 4 5 5 4 4 6 7 12 19 31 53 60 95 97 78 64 66 62 66 32 22 31 40 44 47 32 30
8 8 10 7 5 5 9 11 12 10 4 3 3 4 9 12 7 4 7 10 8 6 4 7 8 19 27 29 54 67 74 77 85 65 57 69 56 47 15 26 43 54 52 52 51
8 6 6 6 5 5 8 8 6 4 5 4 10 20 35 26 13 6 11 24 19 10 8 16 16 12 29 49 67 77 90 100 96 70 72 81 57 71 31 18 35 56 52 50 51
12 9 7 6 5 4 4 4 4 4 17 45 53 64 80 47 22 16 15 26 14 29 37 22 16 10 16 42 58 77 82 100 100 100 88 83 56 89 40 22 46 71 55 67 66
13 10 7 7 4 4 4 5 4 21 87 89 99 100 100 62 27 16 16 24 60 97 60 76 26 24 13 39 58 74 85 92 99 81 73 64 67 93 58 38 60 72 60 56 63
10 10 6 8 4 6 32 23 25 80 100 100 95 100 100 68 44 29 30 24 35 100 78 91 73 36 24 38 66 69 88 100 90 76 69 65 67 88 93 85 90 94 94 77 66
8 9 10 21 23 53 100 62 81 100 100 100 98 100 96 70 67 62 42 23 61 83 69 100 90 74 28 27 69 77 79 84 75 71 64 64 58 80 90 93 100 95 99 72 88
57 46 56 73 38 74 86 84 86 100 100 100 100 100 64 82 78 55 42 18 40 60 100 100 100 100 65 39 58 72 53 59 69 64 67 69 65 89 97 70 80 91 87 100 100

GFSSW_500_rhum_084.txt.gz
RH
29 30 30 33 32 31 27 26 21 18 22 29 30 34 35 41 50 56 53 46 40 39 37 33 27 26 29 30 30 27 29 38 48 37 42 38 46 42 44 43 25 12 7 8 10
32 30 27 27 28 32 30 28 28 23 25 26 34 39 41 45 53 63 58 52 47 46 43 36 30 32 32 36 33 33 32 44 41 42 43 39 46 44 47 47 18 12 6 8 11
37 31 28 26 24 24 24 23 27 32 30 32 37 41 44 47 59 66 66 62 58 54 48 39 37 41 38 40 40 39 37 40 52 47 44 44 43 45 48 40 18 12 6 8 11
37 34 29 25 23 23 24 21 21 22 25 28 30 48 46 47 55 65 68 67 66 62 52 43 46 45 48 43 45 40 41 45 57 51 44 42 39 49 52 38 19 12 7 10 12
30 30 27 21 21 20 21 24 23 22 21 25 29 48 56 47 67 62 69 68 73 70 64 46 49 55 48 49 48 46 46 45 51 53 47 38 46 48 54 32 18 14 12 14 18
25 24 23 21 20 16 14 15 19 18 20 30 36 41 42 51 77 72 72 76 78 81 77 57 47 57 45 47 48 48 49 49 50 50 46 40 40 55 47 31 22 16 20 22 23
25 21 21 20 20 17 15 15 18 20 22 29 36 43 42 71 71 73 77 74 86 84 89 77 50 49 51 53 48 53 56 55 54 54 46 36 42 59 47 36 28 18 20 33 28
27 21 18 18 19 17 21 24 23 25 27 30 32 34 36 75 72 74 66 80 87 97 95 94 69 45 49 49 50 57 54 62 64 62 48 35 50 61 52 41 30 21 21 28 35
23 24 23 21 20 20 24 24 20 23 27 31 35 43 43 74 81 79 73 82 86 99 97 94 82 55 48 53 56 55 53 71 84 65 59 43 53 62 55 49 35 24 16 21 30
19 18 18 17 15 17 18 19 21 19 27 38 45 57 64 69 86 86 77 74 79 95 97 88 90 74 68 74 59 70 63 84 76 63 72 48 54 59 62 56 43 28 17 24 35
16 16 16 17 17 19 18 27 28 27 27 50 56 56 70 90 94 86 79 85 80 90 98 98 89 69 83 97 94 75 69 70 77 64 72 55 63 56 64 62 52 40 17 27 26
12 12 13 15 17 17 19 36 41 40 38 58 64 69 87 87 92 98 91 92 89 87 92 97 76 87 100 91 87 72 65 69 82 71 73 64 55 49 54 69 64 35 19 25 23
7 6 6 6 7 14 25 44 59 56 48 57 87 78 84 81 90 100 97 96 100 94 95 100 97 97 94 96 95 79 70 83 73 79 71 58 51 48 48 65 56 24 20 22 28
6 6 5 5 8 15 27 40 57 64 59 55 72 86 86 68 76 92 94 91 92 98 86 84 98 94 97 81 77 68 86 73 74 81 65 57 51 39 58 68 66 41 24 23 31
5 4 4 4 4 21 26 47 58 68 57 55 57 79 79 93 85 87 97 90 82 72 98 73 48 96 74 55 90 75 84 74 73 72 65 60 45 38 53 76 74 40 20 24 26
3 2 2 2 2 4 29 59 56 44 71 58 59 61 61 80 97 68 92 90 100 83 80 75 88 90 86 77 49 50 58 62 61 62 45 52 48 36 58 70 63 41 19 29 36
2 2 2 2 2 2 14 50 53 54 49 50 52 57 75 75 56 49 79 44 61 90 94 49 28 30 58 52 36 37 39 54 53 46 41 38 46 44 49 88 62 22 20 29 35
3 3 2 2 2 2 3 29 59 51 54 64 64 39 17 34 50 18 10 37 58 35 64 87 88 83 72 28 17 25 34 55 65 80 62 38 33 37 55 83 67 38 21 24 35
9 6 4 4 4 3 4 14 53 41 38 47 33 35 57 31 19 15 29 6 26 44 11 19 44 80 57 76 17 14 19 26 38 46 48 50 38 36 48 79 75 32 26 30 37
10 6 6 8 9 9 6 6 31 54 38 18 9 8 47 20 7 7 8 29 9 5 6 7 6 8 21 24 19 18 16 16 20 24 35 30 32 38 46 78 84 32 24 30 36
14 6 23 20 38 18 9 6 15 29 46 41 27 17 16 38 24 9 22 9 12 14 8 6 5 8 8 7 10 9 14 15 14 15 19 24 58 40 47 63 90 49 27 37 34
26 12 32 33 45 26 11 7 12 17 14 26 33 25 12 10 8 7 9 11 8 5 5 6 7 7 7 8 11 9 9 12 13 16 15 17 31 58 72 63 88 82 26 50 58
76 28 36 52 71 30 12 10 10 12 11 12 14 13 9 8 8 7 8 9 8 5 4 5 5 6 7 8 8 7 13 14 14 13 14 13 28 29 66 50 74 96 31 48 72
86 63 34 61 68 51 16 11 11 11 12 14 14 12 9 7 6 6 8 9 8 7 5 4 4 4 7 26 17 7 8 8 22 15 24 19 22 30 34 57 90 97 58 84 77
59 40 80 35 35 34 30 14 10 10 10 12 14 10 8 6 5 5 8 7 6 5 4 4 4 5 5 7 12 8 7 8 10 5 12 22 23 33 39 51 92 99 95 100 100
86 38 61 57 37 30 69 20 16 13 8 9 8 8 8 6 19 16 10 8 7 11 16 12 16 14 10 33 20 9 6 18 8 11 16 30 23 49 40 55 67 100 96 95 100
87 92 23 41 57 80 26 50 35 30 16 12 12 6 7 43 50 45 25 30 32 34 31 23 20 25 19 48 84 40 39 65 30 17 6 12 27 60 49 55 63 90 96 89 92

GFSSW_500_rhum_087.txt.gz
RH
57 40 36 31 26 25 27 26 25 26 26 25 29 34 30 29 36 33 37 35 36 41 47 46 40 36 36 33 26 29 33 31 29 41 34 39 39 37 34 43 45 48 32 14 8
54 58 40 38 34 30 27 24 24 23 24 22 26 29 32 36 42 42 36 42 43 44 51 49 45 41 40 36 32 34 38 36 37 35 35 46 43 46 36 47 53 39 24 15 7
44 44 42 44 39 34 30 26 24 22 20 20 20 27 25 25 38 25 48 46 50 54 54 53 52 47 44 40 37 42 40 43 38 36 36 46 47 41 38 53 54 49 28 15 7
46 44 42 42 41 41 36 31 26 23 20 18 18 22 22 22 35 39 46 47 49 58 64 64 58 54 49 44 41 40 46 47 44 41 37 49 42 37 41 61 52 46 20 13 10
48 45 42 40 37 35 33 30 25 22 17 17 18 18 20 19 42 27 41 47 49 53 63 72 70 66 58 48 49 42 52 44 49 43 42 51 40 30 45 60 45 38 24 14 13
58 48 44 41 36 31 26 24 22 17 16 15 14 15 15 16 31 36 38 50 54 57 66 71 81 77 66 55 50 56 54 41 47 47 50 56 44 26 65 43 48 40 29 21 12
60 52 44 39 34 29 28 24 21 19 17 13 12 11 10 35 21 32 39 46 51 60 66 74 82 83 81 69 52 55 53 51 48 55 58 60 43 38 65 50 50 46 38 24 15
60 50 42 36 33 30 27 25 20 17 13 13 10 9 9 28 24 30 32 46 60 58 69 75 82 88 95 87 60 58 60 51 55 67 66 70 43 46 57 58 55 50 44 30 17
48 39 35 32 30 27 23 21 19 14 11 10 11 10 8 24 26 36 34 45 55 64 66 64 66 80 93 93 75 53 50 53 56 77 84 66 56 55 51 55 58 56 53 40 27
34 35 33 27 25 21 17 17 15 12 10 8 8 9 10 13 22 35 36 47 62 73 72 71 69 64 82 98 78 70 55 53 68 89 96 63 54 56 58 53 52 62 58 52 31
34 28 23 20 18 17 15 15 12 10 8 8 7 10 8 9 12 18 45 64 76 79 80 90 86 54 81 96 100 99 77 85 76 100 96 58 59 53 55 54 59 62 63 61 19
34 27 21 18 16 14 12 11 10 9 7 9 12 8 18 17 18 46 61 74 94 88 93 83 73 87 100 100 96 95 86 75 77 78 87 64 66 52 52 52 54 65 66 54 16
25 19 15 13 11 9 7 6 5 5 5 6 11 10 16 26 31 62 65 77 86 98 92 88 79 74 94 96 98 95 95 99 92 95 100 63 63 57 53 53 58 64 54 54 19
17 14 11 9 8 7 6 5 4 4 5 7 5 15 30 38 47 76 78 75 82 94 98 92 92 84 90 97 100 94 99 98 95 89 88 94 62 53 52 51 61 62 56 58 18
14 12 10 8 6 6 5 4 4 4 5 10 6 12 28 44 44 77 84 78 69 85 99 90 97 84 91 100 97 90 96 95 98 93 97 80 75 42 54 57 66 57 49 57 18
14 12 9 7 6 5 4 3 3 2 3 10 14 22 39 54 71 84 98 97 95 93 96 98 83 96 80 68 96 99 96 100 98 95 77 72 71 66 46 70 60 64 58 52 16
12 9 7 6 4 4 3 2 2 2 8 14 15 36 45 61 54 61 76 97 66 91 92 100 89 58 100 95 94 97 90 97 98 91 68 76 64 80 54 71 76 62 58 27 14
7 6 6 4 4 3 3 3 2 3 2 3 25 44 44 51 59 86 91 40 67 51 59 83 99 76 47 70 99 99 98 90 81 100 100 98 98 99 42 62 69 63 60 46 16
4 4 3 3 4 6 6 3 2 3 4 2 25 50 45 60 56 44 96 23 17 54 71 42 70 89 67 45 40 28 82 65 86 98 99 98 100 97 50 52 64 65 62 58 19
7 7 22 14 12 11 21 11 8 30 2 2 17 39 94 45 52 56 93 66 20 11 34 35 19 25 65 89 80 73 47 25 37 42 87 100 88 80 75 42 49 63 57 62 21
43 18 41 15 33 96 57 64 39 30 7 5 18 26 33 49 12 51 52 27 12 28 16 12 30 13 11 16 85 85 95 52 31 22 38 100 93 98 100 54 85 72 51 68 35
74 59 76 52 69 79 92 80 96 49 15 16 14 19 12 10 9 12 67 54 28 22 20 42 17 7 8 14 14 41 42 22 20 34 95 99 77 100 93 52 55 66 61 64 58
72 89 87 72 82 75 65 58 90 86 31 13 14 16 33 12 17 22 52 82 57 23 39 10 14 17 9 10 7 10 12 20 26 18 26 86 100 90 96 93 54 47 64 61 70
74 76 93 83 54 80 88 71 72 94 89 74 32 11 23 41 47 33 16 9 9 8 17 20 14 8 22 88 57 14 8 7 9 10 21 26 92 83 100 100 77 65 92 76 75
74 75 99 52 62 64 85 99 76 70 83 79 84 56 22 15 16 11 9 8 10 9 10 10 10 8 7 12 35 14 17 14 9 7 9 25 81 99 65 70 95 81 100 100 98
78 85 100 100 79 80 62 76 94 100 100 72 65 84 27 17 30 40 37 27 22 10 9 9 13 13 10 11 9 6 6 4 3 5 5 8 11 100 96 96 86 57 66 85 98
82 88 95 100 69 87 76 65 67 100 100 100 100 37 21 22 12 21 31 20 15 13 13 12 15 13 14 20 18 6 7 4 3 3 4 4 13 45 84 100 91 58 53 84 82

GFSSW_500_rhum_093.txt.gz
RH
65 60 56 58 61 63 64 65 62 51 50 48 39 31 26 23 23 20 27 25 28 26 26 26 25 19 16 23 29 41 32 33 36 34 35 43 81 75 35 24 37 40 32 28 21
58 68 62 56 54 64 62 59 67 66 49 44 44 48 36 29 28 26 25 27 26 28 22 27 28 22 16 28 28 28 30 38 41 38 35 44 63 44 31 29 30 42 43 23 16
62 65 64 67 62 55 51 48 51 53 48 44 42 46 49 40 30 27 27 28 27 29 28 25 27 26 17 26 35 37 22 42 41 42 39 40 41 41 38 35 36 38 49 27 28
54 57 65 60 63 59 51 44 42 44 46 44 43 41 39 50 43 32 28 27 27 29 31 34 33 26 24 22 41 23 29 37 47 49 46 39 43 41 45 45 39 40 57 32 36
60 58 56 57 62 65 59 57 52 45 43 42 40 42 40 33 42 36 35 25 23 22 23 29 33 32 21 27 34 23 35 38 49 57 53 44 43 40 43 48 48 52 58 52 45
81 70 66 60 66 66 63 66 57 49 46 48 44 37 37 36 35 30 26 26 23 19 20 24 29 31 21 23 24 38 31 29 30 43 58 56 45 46 42 51 47 53 59 49 56
94 91 83 76 75 82 75 69 74 62 56 55 49 45 38 43 35 32 24 25 23 18 17 16 22 23 19 18 30 29 18 16 18 40 61 72 56 48 53 51 46 51 56 46 50
99 88 79 79 77 81 86 76 82 71 79 67 63 44 41 37 33 30 28 25 21 17 15 17 16 12 13 19 19 23 18 9 20 44 64 89 37 62 66 56 55 52 56 48 42
94 96 95 86 88 99 94 90 84 75 77 74 66 53 46 39 35 31 28 23 18 14 12 13 11 10 16 15 15 17 8 9 17 46 68 99 46 66 73 64 60 56 58 50 43
78 80 89 87 87 87 86 74 73 70 69 53 58 55 49 39 35 33 30 21 14 10 8 8 10 9 8 9 7 21 28 19 19 57 98 99 57 74 96 75 69 59 58 57 47
31 61 91 89 100 90 73 57 62 61 58 46 53 47 42 37 36 25 18 13 9 8 7 12 8 6 14 20 19 17 16 14 14 44 65 77 63 75 72 74 68 63 55 59 56
11 23 42 75 98 100 94 85 72 63 55 51 47 50 39 41 41 12 16 12 9 8 8 7 5 10 16 13 12 21 20 16 29 55 93 76 48 68 70 79 73 60 61 59 51
3 12 33 62 62 82 93 95 80 55 58 48 35 41 22 32 28 10 12 7 6 6 5 5 5 10 8 14 15 13 21 35 47 69 76 95 52 74 75 72 55 61 76 83 56
2 5 26 61 62 60 74 89 79 38 45 42 25 25 18 11 18 9 7 6 6 6 9 6 6 6 8 9 35 14 56 70 83 80 63 90 48 70 84 68 63 75 80 80 63
4 4 18 50 62 59 54 68 79 83 56 42 37 28 26 19 16 11 6 5 5 4 10 10 11 17 16 17 53 32 71 81 78 71 69 67 85 40 91 84 67 69 73 68 65
6 5 12 26 38 42 37 29 25 19 20 15 16 12 10 8 6 7 4 4 3 3 3 3 8 9 12 31 43 56 86 92 84 79 60 64 88 45 73 87 80 84 88 77 63
7 5 8 19 15 21 22 18 20 22 20 40 16 11 9 7 6 5 4 4 3 4 4 16 7 32 64 62 62 65 98 92 83 76 56 91 83 46 80 99 95 98 74 74 68
8 6 9 13 15 11 14 14 21 19 15 22 22 9 8 8 6 4 3 3 6 7 15 14 18 55 67 64 69 79 100 94 96 84 90 98 80 85 92 89 96 97 94 87 65
13 9 11 13 12 10 10 15 21 16 15 11 9 9 9 6 14 8 4 3 25 47 33 36 32 68 77 93 79 81 83 93 100 98 90 90 100 97 94 98 97 98 96 85 63
20 11 18 13 10 8 8 8 10 12 11 7 8 31 35 14 19 44 23 15 30 28 43 48 48 67 79 78 97 88 99 100 94 89 93 83 99 98 100 91 94 98 98 96 82
25 21 16 16 11 10 13 32 17 17 14 16 47 75 100 89 41 66 92 50 27 36 50 94 87 86 90 92 95 99 96 100 100 88 83 89 94 98 95 98 100 99 99 100 84
26 18 18 28 36 48 72 54 30 25 39 47 84 100 100 100 93 100 63 100 66 100 74 90 98 66 92 93 81 90 99 98 90 88 100 98 94 100 96 98 97 93 67 100 78
18 17 29 40 78 90 83 67 31 44 71 80 100 100 100 100 75 100 100 100 97 100 100 99 73 43 53 62 92 94 100 100 100 88 91 84 76 85 98 94 98 96 91 97 100
15 24 45 83 97 95 100 60 55 53 62 92 96 99 92 89 100 100 100 100 92 98 94 62 27 32 65 87 85 100 66 100 87 76 72 70 81 100 100 99 95 97 92 92 97
32 57 88 100 100 100 99 66 84 100 65 92 74 100 100 98 100 100 100 100 75 62 62 29 58 54 22 70 87 84 72 56 100 100 95 98 84 99 100 98 98 96 95 98 95
62 100 100 100 100 100 100 78 36 93 88 90 86 86 100 87 99 100 100 100 86 63 36 30 62 86 61 21 20 90 81 80 72 69 69 76 71 78 86 81 92 100 98 98 85
100 100 99 100 100 98 99 93 52 84 78 92 92 84 69 63 77 84 93 86 36 25 24 36 92 73 22 75 62 48 48 97 91 77 64 36 18 21 44 56 63 95 98 95 96